Time,TemperatureF,DewpointF,PressureIn,WindDirection,WindDirectionDegrees,WindSpeedMPH,WindSpeedGustMPH,Humidity,HourlyPrecipIn,Conditions,Clouds,dailyrainin,SoftwareType,DateUTC
2013-12-18 00:00:00,12.1,3.5,30.06,NE,45,0.0,0.0,68,0.00,,SKC,0.00,VWS V14.00,2013-12-18 08:00:00,
2013-12-18 00:01:00,12.1,3.5,30.06,NE,45,0.0,0.0,68,0.00,,SKC,0.00,VWS V14.00,2013-12-18 08:01:00,
2013-12-18 00:02:00,12.1,3.5,30.06,NE,45,0.0,0.0,68,0.00,,SKC,0.00,VWS V14.00,2013-12-18 08:02:00,
2013-12-18 00:04:00,12.1,3.5,30.06,NE,45,0.0,0.0,68,0.00,,SKC,0.00,VWS V14.00,2013-12-18 08:04:00,
2013-12-18 00:05:00,12.1,3.5,30.06,NE,45,0.0,0.0,68,0.00,,SKC,0.00,VWS V14.00,2013-12-18 08:05:00,
2013-12-18 00:06:00,12.1,3.5,30.06,NE,45,0.0,0.0,68,0.00,,SKC,0.00,VWS V14.00,2013-12-18 08:06:00,
2013-12-18 00:07:00,12.1,3.5,30.06,NE,45,0.0,0.0,68,0.00,,SKC,0.00,VWS V14.00,2013-12-18 08:07:00,
2013-12-18 00:10:00,12.1,3.9,30.06,NE,45,0.0,0.0,69,0.00,,SKC,0.00,VWS V14.00,2013-12-18 08:10:00,
2013-12-18 00:11:00,12.2,4.0,30.06,NE,45,0.0,0.0,69,0.00,,SKC,0.00,VWS V14.00,2013-12-18 08:11:00,
2013-12-18 00:12:00,12.2,4.0,30.06,NE,45,0.0,0.0,69,0.00,,SKC,0.00,VWS V14.00,2013-12-18 08:12:00,
2013-12-18 00:15:00,12.1,3.9,30.06,NE,45,0.0,0.0,69,0.00,,SKC,0.00,VWS V14.00,2013-12-18 08:15:00,
2013-12-18 00:16:00,12.1,3.9,30.06,NE,45,0.0,0.0,69,0.00,,SKC,0.00,VWS V14.00,2013-12-18 08:16:00,
2013-12-18 00:17:00,12.1,3.9,30.06,NE,45,0.0,0.0,69,0.00,,SKC,0.00,VWS V14.00,2013-12-18 08:17:00,
2013-12-18 00:20:00,12.1,3.9,30.06,NE,45,0.0,0.0,69,0.00,,SKC,0.00,VWS V14.00,2013-12-18 08:20:00,
2013-12-18 00:21:00,12.1,3.9,30.06,NE,45,0.0,0.0,69,0.00,,SKC,0.00,VWS V14.00,2013-12-18 08:21:00,
2013-12-18 00:22:00,11.9,3.7,30.06,NE,45,0.0,0.0,69,0.00,,SKC,0.00,VWS V14.00,2013-12-18 08:22:00,
2013-12-18 00:25:00,11.9,3.4,30.06,NE,45,0.0,0.0,68,0.00,,SKC,0.00,VWS V14.00,2013-12-18 08:25:00,
2013-12-18 00:26:00,11.9,3.4,30.06,NE,45,0.0,0.0,68,0.00,,SKC,0.00,VWS V14.00,2013-12-18 08:26:00,
2013-12-18 00:27:00,11.9,3.4,30.06,NE,45,0.0,0.0,68,0.00,,SKC,0.00,VWS V14.00,2013-12-18 08:27:00,
2013-12-18 00:30:00,12.1,3.9,30.06,NE,45,0.0,0.0,69,0.00,,SKC,0.00,VWS V14.00,2013-12-18 08:30:00,
2013-12-18 00:31:00,12.2,4.0,30.06,NE,45,0.0,0.0,69,0.00,,SKC,0.00,VWS V14.00,2013-12-18 08:31:00,
2013-12-18 00:32:00,12.1,3.9,30.06,NE,45,0.0,0.0,69,0.00,,SKC,0.00,VWS V14.00,2013-12-18 08:32:00,
2013-12-18 00:35:00,12.2,4.3,30.06,NE,45,0.0,0.0,70,0.00,,SKC,0.00,VWS V14.00,2013-12-18 08:35:00,
2013-12-18 00:36:00,12.1,4.2,30.06,NE,45,0.0,0.0,70,0.00,,SKC,0.00,VWS V14.00,2013-12-18 08:36:00,
2013-12-18 00:37:00,12.1,4.2,30.06,NE,45,0.0,0.0,70,0.00,,SKC,0.00,VWS V14.00,2013-12-18 08:37:00,
2013-12-18 00:38:00,12.1,4.2,30.06,NE,45,0.0,0.0,70,0.00,,SKC,0.00,VWS V14.00,2013-12-18 08:38:00,
2013-12-18 00:40:00,12.1,3.9,30.06,NE,45,0.0,0.0,69,0.00,,SKC,0.00,VWS V14.00,2013-12-18 08:40:00,
2013-12-18 00:41:00,12.1,3.9,30.06,NE,45,0.0,0.0,69,0.00,,SKC,0.00,VWS V14.00,2013-12-18 08:41:00,
2013-12-18 00:42:00,12.4,4.5,30.06,NE,45,0.0,0.0,70,0.00,,SKC,0.00,VWS V14.00,2013-12-18 08:42:00,
2013-12-18 00:43:00,12.6,5.0,30.06,NE,45,0.0,0.0,71,0.00,,SKC,0.00,VWS V14.00,2013-12-18 08:43:00,
2013-12-18 00:46:00,12.6,5.6,30.06,NE,45,0.0,0.0,73,0.00,,SKC,0.00,VWS V14.00,2013-12-18 08:46:00,
2013-12-18 00:47:00,12.8,6.1,30.06,NE,45,0.0,0.0,74,0.00,,SKC,0.00,VWS V14.00,2013-12-18 08:47:00,
2013-12-18 00:48:00,12.8,6.1,30.06,NE,45,0.0,0.0,74,0.00,,SKC,0.00,VWS V14.00,2013-12-18 08:48:00,
2013-12-18 00:51:00,12.6,5.9,30.06,East,90,0.0,0.0,74,0.00,,SKC,0.00,VWS V14.00,2013-12-18 08:51:00,
2013-12-18 00:52:00,12.6,5.9,30.06,East,90,0.0,0.0,74,0.00,,SKC,0.00,VWS V14.00,2013-12-18 08:52:00,
2013-12-18 00:53:00,12.6,5.9,30.06,East,90,0.0,0.0,74,0.00,,SKC,0.00,VWS V14.00,2013-12-18 08:53:00,
2013-12-18 00:56:00,12.6,5.6,30.06,ENE,68,0.0,0.0,73,0.00,,SKC,0.00,VWS V14.00,2013-12-18 08:56:00,
2013-12-18 00:57:00,12.6,5.6,30.06,ENE,68,0.0,0.0,73,0.00,,SKC,0.00,VWS V14.00,2013-12-18 08:57:00,
2013-12-18 00:58:00,12.4,5.1,30.06,ENE,68,0.0,0.0,72,0.00,,SKC,0.00,VWS V14.00,2013-12-18 08:58:00,
2013-12-18 01:01:00,12.4,4.8,30.06,ENE,68,0.0,0.0,71,0.00,,SKC,0.00,VWS V14.00,2013-12-18 09:01:00,
2013-12-18 01:02:00,12.4,4.8,30.06,ENE,68,0.0,0.0,71,0.00,,SKC,0.00,VWS V14.00,2013-12-18 09:02:00,
2013-12-18 01:03:00,12.4,4.8,30.06,ENE,68,0.0,0.0,71,0.00,,SKC,0.00,VWS V14.00,2013-12-18 09:03:00,
2013-12-18 01:06:00,12.4,4.8,30.06,ENE,68,0.0,0.0,71,0.00,,SKC,0.00,VWS V14.00,2013-12-18 09:06:00,
2013-12-18 01:07:00,12.4,4.5,30.06,ENE,68,0.0,0.0,70,0.00,,SKC,0.00,VWS V14.00,2013-12-18 09:07:00,
2013-12-18 01:08:00,12.2,4.3,30.06,ENE,68,0.0,0.0,70,0.00,,SKC,0.00,VWS V14.00,2013-12-18 09:08:00,
2013-12-18 01:09:00,12.2,4.3,30.06,NNE,22,0.0,0.0,70,0.00,,SKC,0.00,VWS V14.00,2013-12-18 09:09:00,
2013-12-18 01:11:00,12.1,4.2,30.06,NNE,22,0.0,0.0,70,0.00,,SKC,0.00,VWS V14.00,2013-12-18 09:11:00,
2013-12-18 01:12:00,12.1,4.2,30.06,NNE,22,0.0,0.0,70,0.00,,SKC,0.00,VWS V14.00,2013-12-18 09:12:00,
2013-12-18 01:13:00,12.1,4.2,30.06,NNE,22,0.0,0.0,70,0.00,,SKC,0.00,VWS V14.00,2013-12-18 09:13:00,
2013-12-18 01:14:00,12.1,4.2,30.06,NNE,22,0.0,0.0,70,0.00,,SKC,0.00,VWS V14.00,2013-12-18 09:14:00,
2013-12-18 01:17:00,12.1,4.2,30.06,NNE,22,0.0,0.0,70,0.00,,SKC,0.00,VWS V14.00,2013-12-18 09:17:00,
2013-12-18 01:18:00,12.1,3.9,30.06,NNE,22,0.0,0.0,69,0.00,,SKC,0.00,VWS V14.00,2013-12-18 09:18:00,
2013-12-18 01:19:00,12.1,4.2,30.06,East,90,0.0,0.0,70,0.00,,SKC,0.00,VWS V14.00,2013-12-18 09:19:00,
2013-12-18 01:22:00,12.1,4.2,30.06,East,90,0.0,0.0,70,0.00,,SKC,0.00,VWS V14.00,2013-12-18 09:22:00,
2013-12-18 01:23:00,12.1,4.2,30.06,East,90,0.0,0.0,70,0.00,,SKC,0.00,VWS V14.00,2013-12-18 09:23:00,
2013-12-18 01:24:00,11.9,4.0,30.06,East,90,0.0,0.0,70,0.00,,SKC,0.00,VWS V14.00,2013-12-18 09:24:00,
2013-12-18 01:27:00,11.9,4.0,30.06,East,90,0.0,0.0,70,0.00,,SKC,0.00,VWS V14.00,2013-12-18 09:27:00,
2013-12-18 01:28:00,11.9,4.0,30.06,East,90,0.0,0.0,70,0.00,,SKC,0.00,VWS V14.00,2013-12-18 09:28:00,
2013-12-18 01:29:00,12.1,4.2,30.06,East,90,0.0,0.0,70,0.00,,SKC,0.00,VWS V14.00,2013-12-18 09:29:00,
2013-12-18 01:32:00,12.2,4.3,30.06,SE,135,0.0,0.0,70,0.00,,SKC,0.00,VWS V14.00,2013-12-18 09:32:00,
2013-12-18 01:33:00,12.2,4.3,30.06,SE,135,0.0,0.0,70,0.00,,SKC,0.00,VWS V14.00,2013-12-18 09:33:00,
2013-12-18 01:34:00,12.2,4.3,30.06,SE,135,2.0,2.0,70,0.00,,SKC,0.00,VWS V14.00,2013-12-18 09:34:00,
2013-12-18 01:37:00,12.4,4.5,30.06,SE,135,0.0,0.0,70,0.00,,SKC,0.00,VWS V14.00,2013-12-18 09:37:00,
2013-12-18 01:38:00,12.4,4.5,30.06,SE,135,0.0,0.0,70,0.00,,SKC,0.00,VWS V14.00,2013-12-18 09:38:00,
2013-12-18 01:39:00,12.2,4.3,30.06,SE,135,0.0,0.0,70,0.00,,SKC,0.00,VWS V14.00,2013-12-18 09:39:00,
2013-12-18 01:42:00,12.1,3.9,30.06,East,90,0.0,0.0,69,0.00,,SKC,0.00,VWS V14.00,2013-12-18 09:42:00,
2013-12-18 01:43:00,12.1,3.9,30.06,East,90,0.0,0.0,69,0.00,,SKC,0.00,VWS V14.00,2013-12-18 09:43:00,
2013-12-18 01:44:00,12.1,3.9,30.06,East,90,0.0,0.0,69,0.00,,SKC,0.00,VWS V14.00,2013-12-18 09:44:00,
2013-12-18 01:45:00,11.9,3.7,30.06,East,90,0.0,0.0,69,0.00,,SKC,0.00,VWS V14.00,2013-12-18 09:45:00,
2013-12-18 01:47:00,12.1,3.9,30.06,East,90,0.0,0.0,69,0.00,,SKC,0.00,VWS V14.00,2013-12-18 09:47:00,
2013-12-18 01:49:00,12.2,4.0,30.06,East,90,0.0,0.0,69,0.00,,SKC,0.00,VWS V14.00,2013-12-18 09:49:00,
2013-12-18 01:50:00,12.4,4.5,30.06,East,90,0.0,0.0,70,0.00,,SKC,0.00,VWS V14.00,2013-12-18 09:50:00,
2013-12-18 01:53:00,12.4,4.5,30.06,East,90,0.0,0.0,70,0.00,,SKC,0.00,VWS V14.00,2013-12-18 09:53:00,
2013-12-18 01:54:00,12.6,4.7,30.06,West,270,0.0,0.0,70,0.00,,SKC,0.00,VWS V14.00,2013-12-18 09:54:00,
2013-12-18 01:55:00,12.4,4.5,30.06,West,270,0.0,0.0,70,0.00,,SKC,0.00,VWS V14.00,2013-12-18 09:55:00,
2013-12-18 01:58:00,12.2,4.0,30.06,WNW,292,2.0,2.0,69,0.00,,SKC,0.00,VWS V14.00,2013-12-18 09:58:00,
2013-12-18 01:59:00,12.1,3.9,30.06,WNW,292,0.0,0.0,69,0.00,,SKC,0.00,VWS V14.00,2013-12-18 09:59:00,
2013-12-18 02:00:00,12.1,3.9,30.06,WNW,292,0.0,0.0,69,0.00,,SKC,0.00,VWS V14.00,2013-12-18 10:00:00,
2013-12-18 02:03:00,11.9,3.4,30.06,WNW,292,0.0,0.0,68,0.00,,SKC,0.00,VWS V14.00,2013-12-18 10:03:00,
2013-12-18 02:04:00,11.9,3.4,30.06,WNW,292,0.0,0.0,68,0.00,,SKC,0.00,VWS V14.00,2013-12-18 10:04:00,
2013-12-18 02:05:00,11.9,3.4,30.06,WNW,292,0.0,0.0,68,0.00,,SKC,0.00,VWS V14.00,2013-12-18 10:05:00,
2013-12-18 02:08:00,11.9,3.4,30.06,WNW,292,0.0,0.0,68,0.00,,SKC,0.00,VWS V14.00,2013-12-18 10:08:00,
2013-12-18 02:09:00,11.7,3.2,30.06,WNW,292,0.0,0.0,68,0.00,,SKC,0.00,VWS V14.00,2013-12-18 10:09:00,
2013-12-18 02:10:00,11.7,3.2,30.06,WNW,292,0.0,0.0,68,0.00,,SKC,0.00,VWS V14.00,2013-12-18 10:10:00,
2013-12-18 02:11:00,11.7,3.2,30.06,WNW,292,0.0,0.0,68,0.00,,SKC,0.00,VWS V14.00,2013-12-18 10:11:00,
2013-12-18 02:13:00,11.5,3.0,30.06,WNW,292,0.0,0.0,68,0.00,,SKC,0.00,VWS V14.00,2013-12-18 10:13:00,
2013-12-18 02:15:00,11.5,3.0,30.06,WNW,292,0.0,0.0,68,0.00,,SKC,0.00,VWS V14.00,2013-12-18 10:15:00,
2013-12-18 02:16:00,11.5,3.0,30.06,WNW,292,0.0,0.0,68,0.00,,SKC,0.00,VWS V14.00,2013-12-18 10:16:00,
2013-12-18 02:18:00,11.3,2.8,30.06,WNW,292,0.0,0.0,68,0.00,,SKC,0.00,VWS V14.00,2013-12-18 10:18:00,
2013-12-18 02:20:00,11.3,2.8,30.06,WNW,292,0.0,0.0,68,0.00,,SKC,0.00,VWS V14.00,2013-12-18 10:20:00,
2013-12-18 02:21:00,11.3,2.8,30.06,WNW,292,0.0,0.0,68,0.00,,SKC,0.00,VWS V14.00,2013-12-18 10:21:00,
2013-12-18 02:23:00,11.2,2.7,30.06,WNW,292,0.0,0.0,68,0.00,,SKC,0.00,VWS V14.00,2013-12-18 10:23:00,
2013-12-18 02:25:00,11.2,2.7,30.06,WNW,292,0.0,0.0,68,0.00,,SKC,0.00,VWS V14.00,2013-12-18 10:25:00,
2013-12-18 02:26:00,11.2,2.7,30.06,WNW,292,0.0,0.0,68,0.00,,SKC,0.00,VWS V14.00,2013-12-18 10:26:00,
2013-12-18 02:27:00,11.2,2.7,30.06,WNW,292,0.0,0.0,68,0.00,,SKC,0.00,VWS V14.00,2013-12-18 10:27:00,
2013-12-18 02:28:00,11.2,2.7,30.06,WNW,292,0.0,0.0,68,0.00,,SKC,0.00,VWS V14.00,2013-12-18 10:28:00,
2013-12-18 02:30:00,11.2,2.7,30.06,WNW,292,0.0,0.0,68,0.00,,SKC,0.00,VWS V14.00,2013-12-18 10:30:00,
2013-12-18 02:31:00,11.2,2.7,30.06,WNW,292,0.0,0.0,68,0.00,,SKC,0.00,VWS V14.00,2013-12-18 10:31:00,
2013-12-18 02:32:00,11.0,2.5,30.06,WNW,292,0.0,0.0,68,0.00,,SKC,0.00,VWS V14.00,2013-12-18 10:32:00,
2013-12-18 02:33:00,11.2,2.7,30.06,WNW,292,0.0,0.0,68,0.00,,SKC,0.00,VWS V14.00,2013-12-18 10:33:00,
2013-12-18 02:35:00,11.2,2.7,30.06,WNW,292,0.0,0.0,68,0.00,,SKC,0.00,VWS V14.00,2013-12-18 10:35:00,
2013-12-18 02:36:00,11.2,2.7,30.06,WNW,292,0.0,0.0,68,0.00,,SKC,0.00,VWS V14.00,2013-12-18 10:36:00,
2013-12-18 02:37:00,11.2,2.7,30.06,WNW,292,0.0,0.0,68,0.00,,SKC,0.00,VWS V14.00,2013-12-18 10:37:00,
2013-12-18 02:39:00,11.5,3.0,30.06,WNW,292,0.0,0.0,68,0.00,,SKC,0.00,VWS V14.00,2013-12-18 10:39:00,
2013-12-18 02:40:00,11.3,2.8,30.06,WNW,292,0.0,0.0,68,0.00,,SKC,0.00,VWS V14.00,2013-12-18 10:40:00,
2013-12-18 02:41:00,11.3,2.8,30.06,WNW,292,0.0,0.0,68,0.00,,SKC,0.00,VWS V14.00,2013-12-18 10:41:00,
2013-12-18 02:42:00,11.3,2.8,30.06,WNW,292,0.0,0.0,68,0.00,,SKC,0.00,VWS V14.00,2013-12-18 10:42:00,
2013-12-18 02:44:00,11.3,2.8,30.06,WNW,292,0.0,0.0,68,0.00,,SKC,0.00,VWS V14.00,2013-12-18 10:44:00,
2013-12-18 02:45:00,11.3,2.8,30.06,WNW,292,0.0,0.0,68,0.00,,SKC,0.00,VWS V14.00,2013-12-18 10:45:00,
2013-12-18 02:46:00,11.3,2.8,30.06,WNW,292,0.0,0.0,68,0.00,,SKC,0.00,VWS V14.00,2013-12-18 10:46:00,
2013-12-18 02:47:00,11.3,2.8,30.06,WNW,292,0.0,0.0,68,0.00,,SKC,0.00,VWS V14.00,2013-12-18 10:47:00,
2013-12-18 02:48:00,11.3,2.8,30.06,WNW,292,0.0,0.0,68,0.00,,SKC,0.00,VWS V14.00,2013-12-18 10:48:00,
2013-12-18 02:49:00,11.5,3.0,30.06,WNW,292,0.0,0.0,68,0.00,,SKC,0.00,VWS V14.00,2013-12-18 10:49:00,
2013-12-18 02:50:00,11.5,3.0,30.06,WNW,292,0.0,0.0,68,0.00,,SKC,0.00,VWS V14.00,2013-12-18 10:50:00,
2013-12-18 02:51:00,11.5,3.0,30.06,WNW,292,0.0,0.0,68,0.00,,SKC,0.00,VWS V14.00,2013-12-18 10:51:00,
2013-12-18 02:52:00,11.5,3.0,30.06,WNW,292,0.0,0.0,68,0.00,,SKC,0.00,VWS V14.00,2013-12-18 10:52:00,
2013-12-18 02:53:00,11.5,3.0,30.06,WNW,292,0.0,0.0,68,0.00,,SKC,0.00,VWS V14.00,2013-12-18 10:53:00,
2013-12-18 02:54:00,11.5,3.3,30.06,WNW,292,0.0,0.0,69,0.00,,SKC,0.00,VWS V14.00,2013-12-18 10:54:00,
2013-12-18 02:55:00,11.7,3.5,30.06,WNW,292,0.0,0.0,69,0.00,,SKC,0.00,VWS V14.00,2013-12-18 10:55:00,
2013-12-18 02:56:00,11.7,3.5,30.06,WNW,292,0.0,0.0,69,0.00,,SKC,0.00,VWS V14.00,2013-12-18 10:56:00,
2013-12-18 02:57:00,11.7,3.5,30.06,WNW,292,0.0,0.0,69,0.00,,SKC,0.00,VWS V14.00,2013-12-18 10:57:00,
2013-12-18 02:58:00,11.7,3.5,30.06,WNW,292,0.0,0.0,69,0.00,,SKC,0.00,VWS V14.00,2013-12-18 10:58:00,
2013-12-18 02:59:00,11.7,3.5,30.06,WNW,292,0.0,0.0,69,0.00,,SKC,0.00,VWS V14.00,2013-12-18 10:59:00,
2013-12-18 03:01:00,11.9,3.7,30.06,WNW,292,0.0,0.0,69,0.00,,SKC,0.00,VWS V14.00,2013-12-18 11:01:00,
2013-12-18 03:02:00,11.9,3.7,30.06,WNW,292,0.0,0.0,69,0.00,,SKC,0.00,VWS V14.00,2013-12-18 11:02:00,
2013-12-18 03:03:00,11.9,3.7,30.06,WNW,292,0.0,0.0,69,0.00,,SKC,0.00,VWS V14.00,2013-12-18 11:03:00,
2013-12-18 03:04:00,12.1,3.9,30.06,WNW,292,0.0,0.0,69,0.00,,SKC,0.00,VWS V14.00,2013-12-18 11:04:00,
2013-12-18 03:06:00,12.1,3.9,30.06,WNW,292,0.0,0.0,69,0.00,,SKC,0.00,VWS V14.00,2013-12-18 11:06:00,
2013-12-18 03:07:00,12.2,4.0,30.06,WNW,292,0.0,0.0,69,0.00,,SKC,0.00,VWS V14.00,2013-12-18 11:07:00,
2013-12-18 03:08:00,12.2,4.0,30.06,WNW,292,0.0,0.0,69,0.00,,SKC,0.00,VWS V14.00,2013-12-18 11:08:00,
2013-12-18 03:09:00,12.2,4.0,30.06,WNW,292,0.0,0.0,69,0.00,,SKC,0.00,VWS V14.00,2013-12-18 11:09:00,
2013-12-18 03:11:00,12.4,4.2,30.06,WNW,292,0.0,0.0,69,0.00,,SKC,0.00,VWS V14.00,2013-12-18 11:11:00,
2013-12-18 03:12:00,12.4,4.2,30.06,WNW,292,0.0,0.0,69,0.00,,SKC,0.00,VWS V14.00,2013-12-18 11:12:00,
2013-12-18 03:13:00,12.4,4.2,30.06,WNW,292,0.0,0.0,69,0.00,,SKC,0.00,VWS V14.00,2013-12-18 11:13:00,
2013-12-18 03:14:00,12.4,4.2,30.03,WNW,292,0.0,0.0,69,0.00,,SKC,0.00,VWS V14.00,2013-12-18 11:14:00,
2013-12-18 03:16:00,12.6,4.7,30.03,WNW,292,0.0,0.0,70,0.00,,SKC,0.00,VWS V14.00,2013-12-18 11:16:00,
2013-12-18 03:17:00,12.6,4.7,30.03,WNW,292,0.0,0.0,70,0.00,,SKC,0.00,VWS V14.00,2013-12-18 11:17:00,
2013-12-18 03:18:00,12.6,4.7,30.03,WNW,292,0.0,0.0,70,0.00,,SKC,0.00,VWS V14.00,2013-12-18 11:18:00,
2013-12-18 03:19:00,12.6,4.7,30.03,WNW,292,0.0,0.0,70,0.00,,SKC,0.00,VWS V14.00,2013-12-18 11:19:00,
2013-12-18 03:21:00,12.8,4.6,30.03,WNW,292,0.0,0.0,69,0.00,,SKC,0.00,VWS V14.00,2013-12-18 11:21:00,
2013-12-18 03:22:00,12.8,4.6,30.03,WNW,292,0.0,0.0,69,0.00,,SKC,0.00,VWS V14.00,2013-12-18 11:22:00,
2013-12-18 03:23:00,12.8,4.6,30.03,WNW,292,0.0,0.0,69,0.00,,SKC,0.00,VWS V14.00,2013-12-18 11:23:00,
2013-12-18 03:24:00,13.0,4.7,30.03,WNW,292,0.0,0.0,69,0.00,,SKC,0.00,VWS V14.00,2013-12-18 11:24:00,
2013-12-18 03:27:00,13.1,5.2,30.03,WNW,292,0.0,0.0,70,0.00,,SKC,0.00,VWS V14.00,2013-12-18 11:27:00,
2013-12-18 03:28:00,13.3,5.4,30.03,WNW,292,0.0,0.0,70,0.00,,SKC,0.00,VWS V14.00,2013-12-18 11:28:00,
2013-12-18 03:29:00,13.3,5.4,30.03,WNW,292,0.0,0.0,70,0.00,,SKC,0.00,VWS V14.00,2013-12-18 11:29:00,
2013-12-18 03:32:00,13.5,5.6,30.03,WNW,292,0.0,0.0,70,0.00,,SKC,0.00,VWS V14.00,2013-12-18 11:32:00,
2013-12-18 03:33:00,13.7,5.7,30.03,WNW,292,0.0,0.0,70,0.00,,SKC,0.00,VWS V14.00,2013-12-18 11:33:00,
2013-12-18 03:34:00,13.7,5.7,30.03,WNW,292,0.0,0.0,70,0.00,,SKC,0.00,VWS V14.00,2013-12-18 11:34:00,
2013-12-18 03:35:00,13.7,5.7,30.03,WNW,292,0.0,0.0,70,0.00,,SKC,0.00,VWS V14.00,2013-12-18 11:35:00,
2013-12-18 03:37:00,13.9,6.2,30.03,WNW,292,0.0,0.0,71,0.00,,SKC,0.00,VWS V14.00,2013-12-18 11:37:00,
2013-12-18 03:39:00,14.0,6.4,30.03,WNW,292,0.0,0.0,71,0.00,,SKC,0.00,VWS V14.00,2013-12-18 11:39:00,
2013-12-18 03:40:00,14.0,6.4,30.03,WNW,292,0.0,0.0,71,0.00,,SKC,0.00,VWS V14.00,2013-12-18 11:40:00,
2013-12-18 03:42:00,14.0,6.4,30.03,WNW,292,0.0,0.0,71,0.00,,SKC,0.00,VWS V14.00,2013-12-18 11:42:00,
2013-12-18 03:43:00,14.0,6.4,30.03,WNW,292,0.0,0.0,71,0.00,,SKC,0.00,VWS V14.00,2013-12-18 11:43:00,
2013-12-18 03:44:00,14.0,6.4,30.03,WNW,292,0.0,0.0,71,0.00,,SKC,0.00,VWS V14.00,2013-12-18 11:44:00,
2013-12-18 03:45:00,14.0,6.4,30.03,WNW,292,0.0,0.0,71,0.00,,SKC,0.00,VWS V14.00,2013-12-18 11:45:00,
2013-12-18 03:48:00,14.4,6.7,30.03,SSW,202,0.0,0.0,71,0.00,,SKC,0.00,VWS V14.00,2013-12-18 11:48:00,
2013-12-18 03:49:00,14.6,6.6,30.03,SSW,202,0.0,0.0,70,0.00,,SKC,0.00,VWS V14.00,2013-12-18 11:49:00,
2013-12-18 03:50:00,14.6,6.6,30.03,SSW,202,0.0,0.0,70,0.00,,SKC,0.00,VWS V14.00,2013-12-18 11:50:00,
2013-12-18 03:53:00,14.8,6.8,30.03,SSW,202,0.0,0.0,70,0.00,,SKC,0.00,VWS V14.00,2013-12-18 11:53:00,
2013-12-18 03:54:00,14.8,6.8,30.03,SW,225,0.0,0.0,70,0.00,,SKC,0.00,VWS V14.00,2013-12-18 11:54:00,
2013-12-18 03:55:00,14.8,6.8,30.03,SW,225,0.0,0.0,70,0.00,,SKC,0.00,VWS V14.00,2013-12-18 11:55:00,
2013-12-18 03:56:00,14.8,6.8,30.03,SW,225,0.0,0.0,70,0.00,,SKC,0.00,VWS V14.00,2013-12-18 11:56:00,
2013-12-18 03:58:00,14.9,6.9,30.00,SW,225,0.0,0.0,70,0.00,,SKC,0.00,VWS V14.00,2013-12-18 11:58:00,
2013-12-18 03:59:00,14.9,6.9,30.00,West,270,0.0,0.0,70,0.00,,SKC,0.00,VWS V14.00,2013-12-18 11:59:00,
2013-12-18 04:00:00,14.9,6.9,30.00,WNW,292,0.0,0.0,70,0.00,,SKC,0.00,VWS V14.00,2013-12-18 12:00:00,
2013-12-18 04:01:00,14.9,6.9,30.00,WNW,292,0.0,0.0,70,0.00,,SKC,0.00,VWS V14.00,2013-12-18 12:01:00,
2013-12-18 04:03:00,15.1,7.4,30.00,NNE,22,0.0,0.0,71,0.00,,SKC,0.00,VWS V14.00,2013-12-18 12:03:00,
2013-12-18 04:04:00,15.1,7.4,30.00,NNE,22,0.0,0.0,71,0.00,,SKC,0.00,VWS V14.00,2013-12-18 12:04:00,
2013-12-18 04:05:00,15.1,7.4,30.00,NNE,22,0.0,0.0,71,0.00,,SKC,0.00,VWS V14.00,2013-12-18 12:05:00,
2013-12-18 04:06:00,15.1,7.4,30.00,NNE,22,0.0,0.0,71,0.00,,SKC,0.00,VWS V14.00,2013-12-18 12:06:00,
2013-12-18 04:09:00,15.3,7.6,30.00,NNE,22,0.0,0.0,71,0.00,,SKC,0.00,VWS V14.00,2013-12-18 12:09:00,
2013-12-18 04:10:00,15.3,7.6,30.00,NNE,22,0.0,0.0,71,0.00,,SKC,0.00,VWS V14.00,2013-12-18 12:10:00,
2013-12-18 04:11:00,15.3,7.6,30.00,NNE,22,0.0,0.0,71,0.00,,SKC,0.00,VWS V14.00,2013-12-18 12:11:00,
2013-12-18 04:12:00,15.3,7.3,30.00,NNE,22,0.0,0.0,70,0.00,,SKC,0.00,VWS V14.00,2013-12-18 12:12:00,
2013-12-18 04:14:00,15.3,7.3,30.00,ENE,68,0.0,0.0,70,0.00,,SKC,0.00,VWS V14.00,2013-12-18 12:14:00,
2013-12-18 04:15:00,15.3,7.6,30.00,ENE,68,0.0,0.0,71,0.00,,SKC,0.00,VWS V14.00,2013-12-18 12:15:00,
2013-12-18 04:16:00,15.3,7.6,30.00,ENE,68,0.0,0.0,71,0.00,,SKC,0.00,VWS V14.00,2013-12-18 12:16:00,
2013-12-18 04:17:00,15.3,7.6,30.00,ENE,68,0.0,0.0,71,0.00,,SKC,0.00,VWS V14.00,2013-12-18 12:17:00,
2013-12-18 04:20:00,15.3,7.6,30.00,ENE,68,0.0,0.0,71,0.00,,SKC,0.00,VWS V14.00,2013-12-18 12:20:00,
2013-12-18 04:21:00,15.3,7.6,30.00,ENE,68,0.0,0.0,71,0.00,,SKC,0.00,VWS V14.00,2013-12-18 12:21:00,
2013-12-18 04:22:00,15.3,7.6,30.00,ENE,68,0.0,0.0,71,0.00,,SKC,0.00,VWS V14.00,2013-12-18 12:22:00,
2013-12-18 04:25:00,15.5,7.8,30.00,ENE,68,0.0,0.0,71,0.00,,SKC,0.00,VWS V14.00,2013-12-18 12:25:00,
2013-12-18 04:26:00,15.5,7.8,30.00,ENE,68,0.0,0.0,71,0.00,,SKC,0.00,VWS V14.00,2013-12-18 12:26:00,
2013-12-18 04:28:00,15.5,7.8,30.00,SE,135,0.0,0.0,71,0.00,,SKC,0.00,VWS V14.00,2013-12-18 12:28:00,
2013-12-18 04:30:00,15.5,7.8,30.00,SE,135,0.0,0.0,71,0.00,,SKC,0.00,VWS V14.00,2013-12-18 12:30:00,
2013-12-18 04:31:00,15.5,7.8,30.00,SE,135,0.0,0.0,71,0.00,,SKC,0.00,VWS V14.00,2013-12-18 12:31:00,
2013-12-18 04:34:00,15.5,7.8,30.00,SE,135,0.0,0.0,71,0.00,,SKC,0.00,VWS V14.00,2013-12-18 12:34:00,
2013-12-18 04:35:00,15.5,7.8,30.00,SE,135,0.0,0.0,71,0.00,,SKC,0.00,VWS V14.00,2013-12-18 12:35:00,
2013-12-18 04:36:00,15.5,7.8,30.00,SE,135,0.0,0.0,71,0.00,,SKC,0.00,VWS V14.00,2013-12-18 12:36:00,
2013-12-18 04:37:00,15.5,7.8,30.00,SE,135,0.0,0.0,71,0.00,,SKC,0.00,VWS V14.00,2013-12-18 12:37:00,
2013-12-18 04:39:00,15.5,7.8,30.00,SE,135,0.0,0.0,71,0.00,,SKC,0.00,VWS V14.00,2013-12-18 12:39:00,
2013-12-18 04:40:00,15.5,7.8,30.00,SE,135,0.0,0.0,71,0.00,,SKC,0.00,VWS V14.00,2013-12-18 12:40:00,
2013-12-18 04:41:00,15.7,7.9,30.00,SE,135,0.0,0.0,71,0.00,,SKC,0.00,VWS V14.00,2013-12-18 12:41:00,
2013-12-18 04:42:00,15.7,7.9,30.00,SE,135,0.0,0.0,71,0.00,,SKC,0.00,VWS V14.00,2013-12-18 12:42:00,
2013-12-18 04:44:00,15.7,8.2,30.00,SE,135,0.0,0.0,72,0.00,,SKC,0.00,VWS V14.00,2013-12-18 12:44:00,
2013-12-18 04:45:00,15.7,8.2,30.00,SE,135,0.0,0.0,72,0.00,,SKC,0.00,VWS V14.00,2013-12-18 12:45:00,
2013-12-18 04:46:00,15.7,8.2,30.00,SE,135,0.0,0.0,72,0.00,,SKC,0.00,VWS V14.00,2013-12-18 12:46:00,
2013-12-18 04:47:00,15.7,8.2,30.00,SE,135,0.0,0.0,72,0.00,,SKC,0.00,VWS V14.00,2013-12-18 12:47:00,
2013-12-18 04:50:00,15.7,8.2,30.00,SE,135,0.0,0.0,72,0.00,,SKC,0.00,VWS V14.00,2013-12-18 12:50:00,
2013-12-18 04:51:00,15.7,8.2,30.00,SE,135,0.0,0.0,72,0.00,,SKC,0.00,VWS V14.00,2013-12-18 12:51:00,
2013-12-18 04:52:00,15.7,8.2,30.00,SE,135,0.0,0.0,72,0.00,,SKC,0.00,VWS V14.00,2013-12-18 12:52:00,
2013-12-18 04:55:00,15.7,8.2,30.00,SE,135,0.0,0.0,72,0.00,,SKC,0.00,VWS V14.00,2013-12-18 12:55:00,
2013-12-18 04:56:00,15.8,8.4,30.00,SE,135,0.0,0.0,72,0.00,,SKC,0.00,VWS V14.00,2013-12-18 12:56:00,
2013-12-18 04:57:00,15.8,8.4,30.00,SE,135,0.0,0.0,72,0.00,,SKC,0.00,VWS V14.00,2013-12-18 12:57:00,
2013-12-18 04:58:00,15.8,8.4,30.00,SE,135,0.0,0.0,72,0.00,,SKC,0.00,VWS V14.00,2013-12-18 12:58:00,
2013-12-18 05:00:00,15.8,8.4,29.97,SE,135,0.0,0.0,72,0.00,,SKC,0.00,VWS V14.00,2013-12-18 13:00:00,
2013-12-18 05:01:00,15.8,8.4,29.97,SE,135,0.0,0.0,72,0.00,,SKC,0.00,VWS V14.00,2013-12-18 13:01:00,
2013-12-18 05:02:00,15.8,8.4,29.97,SE,135,0.0,0.0,72,0.00,,SKC,0.00,VWS V14.00,2013-12-18 13:02:00,
2013-12-18 05:03:00,15.8,8.4,29.97,SE,135,0.0,0.0,72,0.00,,SKC,0.00,VWS V14.00,2013-12-18 13:03:00,
2013-12-18 05:05:00,15.8,8.4,29.97,SE,135,0.0,0.0,72,0.00,,SKC,0.00,VWS V14.00,2013-12-18 13:05:00,
2013-12-18 05:06:00,15.8,8.4,29.97,SE,135,0.0,0.0,72,0.00,,SKC,0.00,VWS V14.00,2013-12-18 13:06:00,
2013-12-18 05:07:00,15.8,8.4,29.97,SE,135,0.0,0.0,72,0.00,,SKC,0.00,VWS V14.00,2013-12-18 13:07:00,
2013-12-18 05:08:00,15.8,8.4,29.97,SE,135,0.0,0.0,72,0.00,,SKC,0.00,VWS V14.00,2013-12-18 13:08:00,
2013-12-18 05:09:00,15.8,8.4,29.97,SE,135,0.0,0.0,72,0.00,,SKC,0.00,VWS V14.00,2013-12-18 13:09:00,
2013-12-18 05:11:00,15.8,8.4,29.97,SE,135,0.0,0.0,72,0.00,,SKC,0.00,VWS V14.00,2013-12-18 13:11:00,
2013-12-18 05:12:00,15.8,8.4,29.97,SE,135,0.0,0.0,72,0.00,,SKC,0.00,VWS V14.00,2013-12-18 13:12:00,
2013-12-18 05:13:00,15.8,8.4,29.97,SE,135,0.0,0.0,72,0.00,,SKC,0.00,VWS V14.00,2013-12-18 13:13:00,
2013-12-18 05:14:00,15.8,8.4,30.03,SE,135,0.0,0.0,72,0.00,,SKC,0.00,VWS V14.00,2013-12-18 13:14:00,
2013-12-18 05:16:00,15.8,8.4,30.03,SE,135,0.0,0.0,72,0.00,,SKC,0.00,VWS V14.00,2013-12-18 13:16:00,
2013-12-18 05:17:00,15.7,8.2,30.03,SE,135,0.0,0.0,72,0.00,,SKC,0.00,VWS V14.00,2013-12-18 13:17:00,
2013-12-18 05:18:00,15.7,8.2,30.03,SE,135,0.0,0.0,72,0.00,,SKC,0.00,VWS V14.00,2013-12-18 13:18:00,
2013-12-18 05:19:00,15.7,8.2,30.03,SE,135,0.0,0.0,72,0.00,,SKC,0.00,VWS V14.00,2013-12-18 13:19:00,
2013-12-18 05:21:00,15.7,8.2,30.03,SE,135,0.0,0.0,72,0.00,,SKC,0.00,VWS V14.00,2013-12-18 13:21:00,
2013-12-18 05:22:00,15.7,8.2,30.03,SE,135,0.0,0.0,72,0.00,,SKC,0.00,VWS V14.00,2013-12-18 13:22:00,
2013-12-18 05:23:00,15.7,8.2,30.03,SE,135,0.0,0.0,72,0.00,,SKC,0.00,VWS V14.00,2013-12-18 13:23:00,
2013-12-18 05:25:00,15.7,8.2,30.03,SE,135,0.0,0.0,72,0.00,,SKC,0.00,VWS V14.00,2013-12-18 13:25:00,
2013-12-18 05:26:00,15.5,8.1,30.03,SE,135,0.0,0.0,72,0.00,,SKC,0.00,VWS V14.00,2013-12-18 13:26:00,
2013-12-18 05:27:00,15.5,8.1,30.03,SE,135,0.0,0.0,72,0.00,,SKC,0.00,VWS V14.00,2013-12-18 13:27:00,
2013-12-18 05:28:00,15.5,7.8,30.03,SE,135,0.0,0.0,71,0.00,,SKC,0.00,VWS V14.00,2013-12-18 13:28:00,
2013-12-18 05:30:00,15.5,7.8,30.00,SE,135,0.0,0.0,71,0.00,,SKC,0.00,VWS V14.00,2013-12-18 13:30:00,
2013-12-18 05:31:00,15.5,7.8,30.00,SE,135,0.0,0.0,71,0.00,,SKC,0.00,VWS V14.00,2013-12-18 13:31:00,
2013-12-18 05:32:00,15.5,7.8,30.00,SE,135,0.0,0.0,71,0.00,,SKC,0.00,VWS V14.00,2013-12-18 13:32:00,
2013-12-18 05:33:00,15.3,7.6,30.00,SE,135,0.0,0.0,71,0.00,,SKC,0.00,VWS V14.00,2013-12-18 13:33:00,
2013-12-18 05:34:00,15.3,7.6,30.00,SE,135,0.0,0.0,71,0.00,,SKC,0.00,VWS V14.00,2013-12-18 13:34:00,
2013-12-18 05:35:00,15.3,7.6,30.00,ENE,68,0.0,0.0,71,0.00,,SKC,0.00,VWS V14.00,2013-12-18 13:35:00,
2013-12-18 05:36:00,15.3,7.6,30.00,ENE,68,0.0,0.0,71,0.00,,SKC,0.00,VWS V14.00,2013-12-18 13:36:00,
2013-12-18 05:37:00,15.3,7.6,30.00,ENE,68,0.0,0.0,71,0.00,,SKC,0.00,VWS V14.00,2013-12-18 13:37:00,
2013-12-18 05:38:00,15.3,7.6,30.00,ENE,68,0.0,0.0,71,0.00,,SKC,0.00,VWS V14.00,2013-12-18 13:38:00,
2013-12-18 05:39:00,15.3,7.6,30.00,ENE,68,0.0,0.0,71,0.00,,SKC,0.00,VWS V14.00,2013-12-18 13:39:00,
2013-12-18 05:40:00,15.1,7.4,30.00,ENE,68,0.0,0.0,71,0.00,,SKC,0.00,VWS V14.00,2013-12-18 13:40:00,
2013-12-18 05:42:00,15.1,7.4,30.00,ENE,68,0.0,0.0,71,0.00,,SKC,0.00,VWS V14.00,2013-12-18 13:42:00,
2013-12-18 05:43:00,15.1,7.4,30.00,ENE,68,0.0,0.0,71,0.00,,SKC,0.00,VWS V14.00,2013-12-18 13:43:00,
2013-12-18 05:44:00,15.1,7.7,30.00,ENE,68,0.0,0.0,72,0.00,,SKC,0.00,VWS V14.00,2013-12-18 13:44:00,
2013-12-18 05:46:00,15.1,7.7,30.00,ENE,68,0.0,0.0,72,0.00,,SKC,0.00,VWS V14.00,2013-12-18 13:46:00,
2013-12-18 05:47:00,14.9,7.6,30.00,East,90,0.0,0.0,72,0.00,,SKC,0.00,VWS V14.00,2013-12-18 13:47:00,
2013-12-18 05:48:00,14.9,7.6,30.00,East,90,0.0,0.0,72,0.00,,SKC,0.00,VWS V14.00,2013-12-18 13:48:00,
2013-12-18 05:49:00,14.9,7.6,30.00,ESE,112,0.0,0.0,72,0.00,,SKC,0.00,VWS V14.00,2013-12-18 13:49:00,
2013-12-18 05:51:00,14.9,7.6,30.00,ESE,112,0.0,0.0,72,0.00,,SKC,0.00,VWS V14.00,2013-12-18 13:51:00,
2013-12-18 05:52:00,14.9,7.2,30.00,ESE,112,0.0,0.0,71,0.00,,SKC,0.00,VWS V14.00,2013-12-18 13:52:00,
2013-12-18 05:53:00,14.9,7.2,30.00,ESE,112,0.0,0.0,71,0.00,,SKC,0.00,VWS V14.00,2013-12-18 13:53:00,
2013-12-18 05:54:00,14.9,7.2,30.00,ESE,112,0.0,0.0,71,0.00,,SKC,0.00,VWS V14.00,2013-12-18 13:54:00,
2013-12-18 05:56:00,14.9,7.2,30.00,ESE,112,0.0,0.0,71,0.00,,SKC,0.00,VWS V14.00,2013-12-18 13:56:00,
2013-12-18 05:57:00,14.8,7.1,30.00,ESE,112,0.0,0.0,71,0.00,,SKC,0.00,VWS V14.00,2013-12-18 13:57:00,
2013-12-18 05:58:00,14.8,7.1,30.00,ESE,112,0.0,0.0,71,0.00,,SKC,0.00,VWS V14.00,2013-12-18 13:58:00,
2013-12-18 05:59:00,14.8,7.1,30.00,ESE,112,0.0,0.0,71,0.00,,SKC,0.00,VWS V14.00,2013-12-18 13:59:00,
2013-12-18 06:01:00,14.8,7.1,30.00,ESE,112,0.0,0.0,71,0.00,,SKC,0.00,VWS V14.00,2013-12-18 14:01:00,
2013-12-18 06:02:00,14.8,7.1,30.00,ENE,68,0.0,0.0,71,0.00,,SKC,0.00,VWS V14.00,2013-12-18 14:02:00,
2013-12-18 06:03:00,14.8,7.1,30.00,ENE,68,0.0,0.0,71,0.00,,SKC,0.00,VWS V14.00,2013-12-18 14:03:00,
2013-12-18 06:05:00,14.8,7.1,30.00,ENE,68,0.0,0.0,71,0.00,,SKC,0.00,VWS V14.00,2013-12-18 14:05:00,
2013-12-18 06:06:00,14.8,7.1,30.00,ENE,68,0.0,0.0,71,0.00,,SKC,0.00,VWS V14.00,2013-12-18 14:06:00,
2013-12-18 06:07:00,14.8,7.1,30.00,ENE,68,0.0,0.0,71,0.00,,SKC,0.00,VWS V14.00,2013-12-18 14:07:00,
2013-12-18 06:08:00,14.8,7.4,30.00,ENE,68,0.0,0.0,72,0.00,,SKC,0.00,VWS V14.00,2013-12-18 14:08:00,
2013-12-18 06:10:00,14.8,7.4,30.00,ENE,68,0.0,0.0,72,0.00,,SKC,0.00,VWS V14.00,2013-12-18 14:10:00,
2013-12-18 06:12:00,14.9,7.6,30.00,ENE,68,0.0,0.0,72,0.00,,SKC,0.00,VWS V14.00,2013-12-18 14:12:00,
2013-12-18 06:13:00,14.9,7.6,30.00,ENE,68,0.0,0.0,72,0.00,,SKC,0.00,VWS V14.00,2013-12-18 14:13:00,
2013-12-18 06:15:00,14.9,7.6,30.00,ENE,68,0.0,0.0,72,0.00,,SKC,0.00,VWS V14.00,2013-12-18 14:15:00,
2013-12-18 06:17:00,14.9,7.6,30.00,ENE,68,0.0,0.0,72,0.00,,SKC,0.00,VWS V14.00,2013-12-18 14:17:00,
2013-12-18 06:18:00,14.8,7.4,30.00,ENE,68,0.0,0.0,72,0.00,,SKC,0.00,VWS V14.00,2013-12-18 14:18:00,
2013-12-18 06:20:00,14.8,7.4,30.00,ENE,68,0.0,0.0,72,0.00,,SKC,0.00,VWS V14.00,2013-12-18 14:20:00,
2013-12-18 06:21:00,14.8,7.4,30.00,ENE,68,0.0,0.0,72,0.00,,SKC,0.00,VWS V14.00,2013-12-18 14:21:00,
2013-12-18 06:22:00,14.8,7.4,30.00,ENE,68,0.0,0.0,72,0.00,,SKC,0.00,VWS V14.00,2013-12-18 14:22:00,
2013-12-18 06:23:00,14.8,7.4,30.00,ENE,68,0.0,0.0,72,0.00,,SKC,0.00,VWS V14.00,2013-12-18 14:23:00,
2013-12-18 06:25:00,14.8,7.4,30.00,ENE,68,0.0,0.0,72,0.00,,SKC,0.00,VWS V14.00,2013-12-18 14:25:00,
2013-12-18 06:26:00,14.8,7.4,30.00,ENE,68,0.0,0.0,72,0.00,,SKC,0.00,VWS V14.00,2013-12-18 14:26:00,
2013-12-18 06:27:00,14.9,7.6,30.00,ENE,68,0.0,0.0,72,0.00,,SKC,0.00,VWS V14.00,2013-12-18 14:27:00,
2013-12-18 06:28:00,14.9,7.6,30.00,SE,135,0.0,0.0,72,0.00,,SKC,0.00,VWS V14.00,2013-12-18 14:28:00,
2013-12-18 06:30:00,14.9,7.6,30.00,SSE,158,0.0,0.0,72,0.00,,SKC,0.00,VWS V14.00,2013-12-18 14:30:00,
2013-12-18 06:31:00,15.1,7.7,30.00,SSE,158,0.0,0.0,72,0.00,,SKC,0.00,VWS V14.00,2013-12-18 14:31:00,
2013-12-18 06:32:00,15.1,7.7,30.00,South,180,0.0,0.0,72,0.00,,SKC,0.00,VWS V14.00,2013-12-18 14:32:00,
2013-12-18 06:33:00,15.1,7.7,30.00,South,180,2.5,2.5,72,0.00,,SKC,0.00,VWS V14.00,2013-12-18 14:33:00,
2013-12-18 06:34:00,14.9,7.6,30.00,SSE,158,2.9,2.9,72,0.00,,SKC,0.00,VWS V14.00,2013-12-18 14:34:00,
2013-12-18 06:35:00,14.9,7.6,30.00,SSE,158,2.0,2.0,72,0.00,,SKC,0.00,VWS V14.00,2013-12-18 14:35:00,
2013-12-18 06:37:00,14.9,7.9,30.00,SE,135,0.0,0.0,73,0.00,,SKC,0.00,VWS V14.00,2013-12-18 14:37:00,
2013-12-18 06:38:00,15.1,8.0,30.00,SE,135,0.0,0.0,73,0.00,,SKC,0.00,VWS V14.00,2013-12-18 14:38:00,
2013-12-18 06:39:00,15.1,8.0,30.00,SE,135,0.0,0.0,73,0.00,,SKC,0.00,VWS V14.00,2013-12-18 14:39:00,
2013-12-18 06:40:00,14.9,7.9,30.00,NNW,338,0.0,0.0,73,0.00,,SKC,0.00,VWS V14.00,2013-12-18 14:40:00,
2013-12-18 06:42:00,14.9,7.9,30.00,NW,315,0.0,0.0,73,0.00,,SKC,0.00,VWS V14.00,2013-12-18 14:42:00,
2013-12-18 06:43:00,14.9,7.9,30.00,NW,315,0.0,0.0,73,0.00,,SKC,0.00,VWS V14.00,2013-12-18 14:43:00,
2013-12-18 06:44:00,14.9,7.9,30.00,NW,315,0.0,0.0,73,0.00,,SKC,0.00,VWS V14.00,2013-12-18 14:44:00,
2013-12-18 06:45:00,14.9,7.9,30.00,NW,315,0.0,0.0,73,0.00,,SKC,0.00,VWS V14.00,2013-12-18 14:45:00,
2013-12-18 06:47:00,14.9,7.6,30.00,NW,315,0.0,0.0,72,0.00,,SKC,0.00,VWS V14.00,2013-12-18 14:47:00,
2013-12-18 06:48:00,14.9,7.6,30.00,NW,315,0.0,0.0,72,0.00,,SKC,0.00,VWS V14.00,2013-12-18 14:48:00,
2013-12-18 06:49:00,14.9,7.6,30.00,NW,315,0.0,0.0,72,0.00,,SKC,0.00,VWS V14.00,2013-12-18 14:49:00,
2013-12-18 06:51:00,14.8,7.4,30.00,NW,315,0.0,0.0,72,0.00,,SKC,0.00,VWS V14.00,2013-12-18 14:51:00,
2013-12-18 06:52:00,14.8,7.4,30.00,NW,315,0.0,0.0,72,0.00,,SKC,0.00,VWS V14.00,2013-12-18 14:52:00,
2013-12-18 06:53:00,14.8,7.4,30.00,NW,315,0.0,0.0,72,0.00,,SKC,0.00,VWS V14.00,2013-12-18 14:53:00,
2013-12-18 06:54:00,14.8,7.4,30.00,NW,315,0.0,0.0,72,0.00,,SKC,0.00,VWS V14.00,2013-12-18 14:54:00,
2013-12-18 06:56:00,14.8,7.4,30.00,NW,315,0.0,0.0,72,0.00,,SKC,0.00,VWS V14.00,2013-12-18 14:56:00,
2013-12-18 06:58:00,14.8,7.4,30.00,NW,315,0.0,0.0,72,0.00,,SKC,0.00,VWS V14.00,2013-12-18 14:58:00,
2013-12-18 06:59:00,14.6,7.2,30.00,NW,315,0.0,0.0,72,0.00,,SKC,0.00,VWS V14.00,2013-12-18 14:59:00,
2013-12-18 07:02:00,14.6,7.2,30.00,NW,315,0.0,0.0,72,0.00,,SKC,0.00,VWS V14.00,2013-12-18 15:02:00,
2013-12-18 07:03:00,14.8,7.4,30.00,NW,315,0.0,0.0,72,0.00,,SKC,0.00,VWS V14.00,2013-12-18 15:03:00,
2013-12-18 07:04:00,14.8,7.4,30.00,NW,315,0.0,0.0,72,0.00,,SKC,0.00,VWS V14.00,2013-12-18 15:04:00,
2013-12-18 07:07:00,14.8,7.4,30.00,NW,315,0.0,0.0,72,0.00,,SKC,0.00,VWS V14.00,2013-12-18 15:07:00,
2013-12-18 07:09:00,14.8,7.7,30.00,NW,315,0.0,0.0,73,0.00,,SKC,0.00,VWS V14.00,2013-12-18 15:09:00,
2013-12-18 07:12:00,15.1,8.0,30.00,NW,315,0.0,0.0,73,0.00,,SKC,0.00,VWS V14.00,2013-12-18 15:12:00,
2013-12-18 07:14:00,15.1,8.0,29.97,NW,315,0.0,0.0,73,0.00,,SKC,0.00,VWS V14.00,2013-12-18 15:14:00,
2013-12-18 07:18:00,15.3,8.2,29.97,NNE,22,0.0,0.0,73,0.00,,SKC,0.00,VWS V14.00,2013-12-18 15:18:00,
2013-12-18 07:19:00,15.3,8.2,29.97,NNE,22,0.0,0.0,73,0.00,,SKC,0.00,VWS V14.00,2013-12-18 15:19:00,
2013-12-18 07:21:00,15.5,8.4,29.97,NNE,22,0.0,0.0,73,0.00,,SKC,0.00,VWS V14.00,2013-12-18 15:21:00,
2013-12-18 07:23:00,15.5,8.7,29.97,NNW,338,0.0,0.0,74,0.00,,SKC,0.00,VWS V14.00,2013-12-18 15:23:00,
2013-12-18 07:24:00,15.5,8.7,29.97,NNW,338,0.0,0.0,74,0.00,,SKC,0.00,VWS V14.00,2013-12-18 15:24:00,
2013-12-18 07:25:00,15.5,8.7,29.97,NNW,338,0.0,0.0,74,0.00,,SKC,0.00,VWS V14.00,2013-12-18 15:25:00,
2013-12-18 07:26:00,15.7,8.9,29.97,NNW,338,0.0,0.0,74,0.00,,SKC,0.00,VWS V14.00,2013-12-18 15:26:00,
2013-12-18 07:29:00,15.7,8.9,29.97,WNW,292,0.0,0.0,74,0.00,,SKC,0.00,VWS V14.00,2013-12-18 15:29:00,
2013-12-18 07:30:00,15.8,9.0,29.97,WNW,292,0.0,0.0,74,0.00,,SKC,0.00,VWS V14.00,2013-12-18 15:30:00,
2013-12-18 07:31:00,15.8,9.0,29.97,WNW,292,0.0,0.0,74,0.00,,SKC,0.00,VWS V14.00,2013-12-18 15:31:00,
2013-12-18 07:34:00,16.0,9.2,29.97,WNW,292,0.0,0.0,74,0.00,,SKC,0.00,VWS V14.00,2013-12-18 15:34:00,
2013-12-18 07:35:00,16.0,9.2,29.97,WNW,292,0.0,0.0,74,0.00,,SKC,0.00,VWS V14.00,2013-12-18 15:35:00,
2013-12-18 07:37:00,16.2,9.4,29.97,WNW,292,0.0,0.0,74,0.00,,SKC,0.00,VWS V14.00,2013-12-18 15:37:00,
2013-12-18 07:39:00,16.2,9.4,29.97,WNW,292,0.0,0.0,74,0.00,,SKC,0.00,VWS V14.00,2013-12-18 15:39:00,
2013-12-18 07:40:00,16.2,9.4,29.97,SW,225,0.0,0.0,74,0.00,,SKC,0.00,VWS V14.00,2013-12-18 15:40:00,
2013-12-18 07:42:00,16.4,9.6,29.97,SW,225,1.3,1.3,74,0.00,,SKC,0.00,VWS V14.00,2013-12-18 15:42:00,
2013-12-18 07:44:00,16.4,9.6,29.97,SW,225,0.9,0.9,74,0.00,,SKC,0.00,VWS V14.00,2013-12-18 15:44:00,
2013-12-18 07:45:00,16.4,9.6,29.97,SW,225,0.0,0.0,74,0.00,,SKC,0.00,VWS V14.00,2013-12-18 15:45:00,
2013-12-18 07:47:00,16.6,9.7,29.97,SW,225,0.0,0.0,74,0.00,,SKC,0.00,VWS V14.00,2013-12-18 15:47:00,
2013-12-18 07:49:00,16.6,9.7,29.97,SW,225,0.0,0.0,74,0.00,,SKC,0.00,VWS V14.00,2013-12-18 15:49:00,
2013-12-18 07:50:00,16.6,9.7,29.97,SW,225,0.0,0.0,74,0.00,,SKC,0.00,VWS V14.00,2013-12-18 15:50:00,
2013-12-18 07:51:00,16.7,9.9,29.97,SW,225,0.0,0.0,74,0.00,,SKC,0.00,VWS V14.00,2013-12-18 15:51:00,
2013-12-18 07:53:00,16.7,9.9,29.97,SW,225,0.0,0.0,74,0.00,,SKC,0.00,VWS V14.00,2013-12-18 15:53:00,
2013-12-18 07:55:00,16.9,10.1,29.97,SW,225,0.0,0.0,74,0.00,,SKC,0.00,VWS V14.00,2013-12-18 15:55:00,
2013-12-18 07:56:00,16.9,10.1,29.97,SW,225,0.0,0.0,74,0.00,,SKC,0.00,VWS V14.00,2013-12-18 15:56:00,
2013-12-18 07:58:00,16.9,10.1,29.97,SW,225,0.0,0.0,74,0.00,,SKC,0.00,VWS V14.00,2013-12-18 15:58:00,
2013-12-18 08:00:00,17.1,10.3,29.97,SW,225,0.0,0.0,74,0.00,,SKC,0.00,VWS V14.00,2013-12-18 16:00:00,
2013-12-18 08:01:00,17.1,10.3,29.97,SW,225,0.0,0.0,74,0.00,,SKC,0.00,VWS V14.00,2013-12-18 16:01:00,
2013-12-18 08:03:00,17.3,10.4,29.97,SW,225,0.0,0.0,74,0.00,,SKC,0.00,VWS V14.00,2013-12-18 16:03:00,
2013-12-18 08:05:00,17.5,10.6,29.97,SW,225,0.0,0.0,74,0.00,,SKC,0.00,VWS V14.00,2013-12-18 16:05:00,
2013-12-18 08:06:00,17.5,10.6,29.97,SW,225,0.0,0.0,74,0.00,,SKC,0.00,VWS V14.00,2013-12-18 16:06:00,
2013-12-18 08:08:00,17.6,10.8,29.97,SW,225,0.9,0.9,74,0.00,,SKC,0.00,VWS V14.00,2013-12-18 16:08:00,
2013-12-18 08:10:00,17.6,10.8,29.97,SW,225,0.0,0.0,74,0.00,,SKC,0.00,VWS V14.00,2013-12-18 16:10:00,
2013-12-18 08:11:00,17.6,10.8,29.97,SW,225,0.0,0.0,74,0.00,,SKC,0.00,VWS V14.00,2013-12-18 16:11:00,
2013-12-18 08:13:00,17.8,10.9,29.94,SW,225,0.0,0.0,74,0.00,,SKC,0.00,VWS V14.00,2013-12-18 16:13:00,
2013-12-18 08:15:00,18.0,11.1,29.94,SW,225,0.0,0.0,74,0.00,,SKC,0.00,VWS V14.00,2013-12-18 16:15:00,
2013-12-18 08:16:00,18.0,11.1,29.94,SW,225,0.0,0.0,74,0.00,,SKC,0.00,VWS V14.00,2013-12-18 16:16:00,
2013-12-18 08:17:00,18.2,11.0,29.94,SW,225,0.0,0.0,73,0.00,,SKC,0.00,VWS V14.00,2013-12-18 16:17:00,
2013-12-18 08:19:00,18.4,11.2,29.94,ENE,68,0.0,0.0,73,0.00,,SKC,0.00,VWS V14.00,2013-12-18 16:19:00,
2013-12-18 08:20:00,18.5,11.3,29.94,ENE,68,0.0,0.0,73,0.00,,SKC,0.00,VWS V14.00,2013-12-18 16:20:00,
2013-12-18 08:21:00,18.5,11.3,29.94,ENE,68,0.0,0.0,73,0.00,,SKC,0.00,VWS V14.00,2013-12-18 16:21:00,
2013-12-18 08:22:00,18.5,11.3,29.94,ENE,68,0.0,0.0,73,0.00,,SKC,0.00,VWS V14.00,2013-12-18 16:22:00,
2013-12-18 08:24:00,18.7,11.5,29.94,ENE,68,0.0,0.0,73,0.00,,SKC,0.00,VWS V14.00,2013-12-18 16:24:00,
2013-12-18 08:25:00,18.7,11.5,29.94,ENE,68,0.0,0.0,73,0.00,,SKC,0.00,VWS V14.00,2013-12-18 16:25:00,
2013-12-18 08:26:00,18.7,11.5,29.94,NE,45,2.0,2.0,73,0.00,,SKC,0.00,VWS V14.00,2013-12-18 16:26:00,
2013-12-18 08:27:00,18.7,11.5,29.94,NNE,22,2.2,2.2,73,0.00,,SKC,0.00,VWS V14.00,2013-12-18 16:27:00,
2013-12-18 08:29:00,18.7,11.2,29.97,NNE,22,0.0,0.0,72,0.00,,SKC,0.00,VWS V14.00,2013-12-18 16:29:00,
2013-12-18 08:30:00,18.7,11.2,29.97,NNE,22,1.1,1.1,72,0.00,,SKC,0.00,VWS V14.00,2013-12-18 16:30:00,
2013-12-18 08:31:00,18.7,11.2,29.97,NE,45,2.9,2.9,72,0.00,,SKC,0.00,VWS V14.00,2013-12-18 16:31:00,
2013-12-18 08:32:00,18.5,11.0,29.97,NNE,22,4.3,4.3,72,0.00,,SKC,0.00,VWS V14.00,2013-12-18 16:32:00,
2013-12-18 08:35:00,18.7,11.5,29.97,NNE,22,0.0,0.0,73,0.00,,SKC,0.00,VWS V14.00,2013-12-18 16:35:00,
2013-12-18 08:36:00,18.7,11.5,29.97,NE,45,0.0,0.0,73,0.00,,SKC,0.00,VWS V14.00,2013-12-18 16:36:00,
2013-12-18 08:37:00,18.9,11.7,29.97,NNE,22,0.0,0.0,73,0.00,,SKC,0.00,VWS V14.00,2013-12-18 16:37:00,
2013-12-18 08:38:00,18.9,11.7,29.97,NNE,22,0.0,0.0,73,0.00,,SKC,0.00,VWS V14.00,2013-12-18 16:38:00,
2013-12-18 08:40:00,19.1,11.9,29.97,NNE,22,0.0,0.0,73,0.00,,SKC,0.00,VWS V14.00,2013-12-18 16:40:00,
2013-12-18 08:41:00,19.1,11.9,29.97,NNE,22,0.0,0.0,73,0.00,,SKC,0.00,VWS V14.00,2013-12-18 16:41:00,
2013-12-18 08:43:00,19.3,12.0,29.97,NNE,22,0.0,0.0,73,0.00,,SKC,0.00,VWS V14.00,2013-12-18 16:43:00,
2013-12-18 08:44:00,19.4,12.2,29.97,NNE,22,0.9,0.9,73,0.00,,SKC,0.00,VWS V14.00,2013-12-18 16:44:00,
2013-12-18 08:45:00,19.6,12.4,29.97,NNE,22,0.0,0.0,73,0.00,,SKC,0.00,VWS V14.00,2013-12-18 16:45:00,
2013-12-18 08:46:00,19.6,12.4,29.97,NNE,22,0.0,0.0,73,0.00,,SKC,0.00,VWS V14.00,2013-12-18 16:46:00,
2013-12-18 08:48:00,20.0,12.7,29.97,NNE,22,0.0,0.0,73,0.00,,SKC,0.00,VWS V14.00,2013-12-18 16:48:00,
2013-12-18 08:49:00,20.2,12.9,29.97,NNE,22,0.0,0.0,73,0.00,,SKC,0.00,VWS V14.00,2013-12-18 16:49:00,
2013-12-18 08:50:00,20.3,13.1,29.97,NNE,22,0.0,0.0,73,0.00,,SKC,0.00,VWS V14.00,2013-12-18 16:50:00,
2013-12-18 08:51:00,20.3,13.1,29.97,NNE,22,0.0,0.0,73,0.00,,SKC,0.00,VWS V14.00,2013-12-18 16:51:00,
2013-12-18 08:53:00,20.5,13.3,29.97,NNE,22,0.0,0.0,73,0.00,,SKC,0.00,VWS V14.00,2013-12-18 16:53:00,
2013-12-18 08:54:00,20.9,13.6,29.97,NNE,22,0.0,0.0,73,0.00,,SKC,0.00,VWS V14.00,2013-12-18 16:54:00,
2013-12-18 08:56:00,21.1,13.8,29.97,NNE,22,0.0,0.0,73,0.00,,SKC,0.00,VWS V14.00,2013-12-18 16:56:00,
2013-12-18 08:58:00,21.2,13.9,29.97,NNE,22,0.0,0.0,73,0.00,,SKC,0.00,VWS V14.00,2013-12-18 16:58:00,
2013-12-18 09:00:00,21.4,14.1,29.97,North,0,0.0,0.0,73,0.00,,SKC,0.00,VWS V14.00,2013-12-18 17:00:00,
2013-12-18 09:01:00,21.6,14.0,29.97,NNW,338,0.0,0.0,72,0.00,,SKC,0.00,VWS V14.00,2013-12-18 17:01:00,
2013-12-18 09:03:00,21.2,13.3,29.97,NW,315,0.0,0.0,71,0.00,,SKC,0.00,VWS V14.00,2013-12-18 17:03:00,
2013-12-18 09:05:00,21.2,13.0,29.97,NW,315,0.0,0.0,70,0.00,,SKC,0.00,VWS V14.00,2013-12-18 17:05:00,
2013-12-18 09:06:00,21.2,13.0,29.97,NW,315,0.0,0.0,70,0.00,,SKC,0.00,VWS V14.00,2013-12-18 17:06:00,
2013-12-18 09:08:00,21.4,13.2,29.97,NW,315,0.0,0.0,70,0.00,,SKC,0.00,VWS V14.00,2013-12-18 17:08:00,
2013-12-18 09:10:00,21.4,13.2,29.97,NW,315,0.0,0.0,70,0.00,,SKC,0.00,VWS V14.00,2013-12-18 17:10:00,
2013-12-18 09:11:00,21.4,13.2,29.97,NW,315,0.0,0.0,70,0.00,,SKC,0.00,VWS V14.00,2013-12-18 17:11:00,
2013-12-18 09:13:00,21.6,13.0,29.97,NW,315,0.0,0.0,69,0.00,,SKC,0.00,VWS V14.00,2013-12-18 17:13:00,
2013-12-18 09:15:00,21.6,13.0,29.97,NW,315,0.0,0.0,69,0.00,,SKC,0.00,VWS V14.00,2013-12-18 17:15:00,
2013-12-18 09:16:00,21.6,13.0,29.97,NW,315,0.0,0.0,69,0.00,,SKC,0.00,VWS V14.00,2013-12-18 17:16:00,
2013-12-18 09:18:00,21.8,12.9,29.97,NW,315,0.0,0.0,68,0.00,,SKC,0.00,VWS V14.00,2013-12-18 17:18:00,
2013-12-18 09:20:00,22.0,13.0,29.97,NW,315,0.0,0.0,68,0.00,,SKC,0.00,VWS V14.00,2013-12-18 17:20:00,
2013-12-18 09:21:00,22.0,13.0,29.97,NW,315,0.0,0.0,68,0.00,,SKC,0.00,VWS V14.00,2013-12-18 17:21:00,
2013-12-18 09:24:00,22.0,13.0,29.97,WNW,292,0.0,0.0,68,0.00,,SKC,0.00,VWS V14.00,2013-12-18 17:24:00,
2013-12-18 09:25:00,22.0,12.7,29.97,NW,315,0.0,0.0,67,0.00,,SKC,0.00,VWS V14.00,2013-12-18 17:25:00,
2013-12-18 09:26:00,22.0,12.7,29.97,NW,315,0.0,0.0,67,0.00,,SKC,0.00,VWS V14.00,2013-12-18 17:26:00,
2013-12-18 09:27:00,22.1,12.5,29.97,NW,315,0.0,0.0,66,0.00,,SKC,0.00,VWS V14.00,2013-12-18 17:27:00,
2013-12-18 09:29:00,22.1,12.5,29.97,West,270,0.0,0.0,66,0.00,,SKC,0.00,VWS V14.00,2013-12-18 17:29:00,
2013-12-18 09:30:00,22.1,12.2,29.97,West,270,0.0,0.0,65,0.00,,SKC,0.00,VWS V14.00,2013-12-18 17:30:00,
2013-12-18 09:31:00,22.5,12.5,29.97,West,270,0.0,0.0,65,0.00,,SKC,0.00,VWS V14.00,2013-12-18 17:31:00,
2013-12-18 09:32:00,22.5,12.5,29.97,West,270,0.0,0.0,65,0.00,,SKC,0.00,VWS V14.00,2013-12-18 17:32:00,
2013-12-18 09:34:00,22.9,12.9,29.97,SW,225,0.0,0.0,65,0.00,,SKC,0.00,VWS V14.00,2013-12-18 17:34:00,
2013-12-18 09:35:00,22.9,12.9,29.97,SW,225,0.0,0.0,65,0.00,,SKC,0.00,VWS V14.00,2013-12-18 17:35:00,
2013-12-18 09:36:00,23.0,12.7,29.97,South,180,0.0,0.0,64,0.00,,SKC,0.00,VWS V14.00,2013-12-18 17:36:00,
2013-12-18 09:37:00,23.0,12.7,29.97,South,180,0.0,0.0,64,0.00,,SKC,0.00,VWS V14.00,2013-12-18 17:37:00,
2013-12-18 09:39:00,23.2,12.5,29.97,SSW,202,1.1,1.1,63,0.00,,SKC,0.00,VWS V14.00,2013-12-18 17:39:00,
2013-12-18 09:40:00,23.6,12.5,29.97,SW,225,0.0,0.0,62,0.00,,SKC,0.00,VWS V14.00,2013-12-18 17:40:00,
2013-12-18 09:42:00,23.8,12.7,29.97,SW,225,2.2,2.2,62,0.00,,SKC,0.00,VWS V14.00,2013-12-18 17:42:00,
2013-12-18 09:44:00,24.5,13.3,29.94,SW,225,2.0,2.0,62,0.00,,SKC,0.00,VWS V14.00,2013-12-18 17:44:00,
2013-12-18 09:45:00,24.5,13.3,29.94,SW,225,2.5,2.5,62,0.00,,SKC,0.00,VWS V14.00,2013-12-18 17:45:00,
2013-12-18 09:47:00,24.7,13.1,29.94,SW,225,2.0,2.0,61,0.00,,SKC,0.00,VWS V14.00,2013-12-18 17:47:00,
2013-12-18 09:50:00,25.2,12.9,29.94,South,180,2.5,2.5,59,0.00,,SKC,0.00,VWS V14.00,2013-12-18 17:50:00,
2013-12-18 09:51:00,25.2,12.5,29.94,South,180,1.6,1.6,58,0.00,,SKC,0.00,VWS V14.00,2013-12-18 17:51:00,
2013-12-18 09:52:00,25.2,12.1,29.94,SSE,158,0.0,0.0,57,0.00,,SKC,0.00,VWS V14.00,2013-12-18 17:52:00,
2013-12-18 09:55:00,25.6,11.6,29.94,SW,225,2.0,2.0,55,0.00,,SKC,0.00,VWS V14.00,2013-12-18 17:55:00,
2013-12-18 09:56:00,25.7,11.8,29.94,SW,225,2.2,2.2,55,0.00,,SKC,0.00,VWS V14.00,2013-12-18 17:56:00,
2013-12-18 09:57:00,25.9,12.0,29.94,SSW,202,0.9,0.9,55,0.00,,SKC,0.00,VWS V14.00,2013-12-18 17:57:00,
2013-12-18 10:00:00,26.1,11.7,29.97,SW,225,0.0,0.0,54,0.00,,SKC,0.00,VWS V14.00,2013-12-18 18:00:00,
2013-12-18 10:01:00,26.1,11.7,29.97,SW,225,0.0,0.0,54,0.00,,SKC,0.00,VWS V14.00,2013-12-18 18:01:00,
2013-12-18 10:02:00,26.1,11.7,29.97,SW,225,0.0,0.0,54,0.00,,SKC,0.00,VWS V14.00,2013-12-18 18:02:00,
2013-12-18 10:03:00,26.1,11.7,29.97,WSW,248,0.0,0.0,54,0.00,,SKC,0.00,VWS V14.00,2013-12-18 18:03:00,
2013-12-18 10:05:00,27.5,13.5,29.97,West,270,0.0,0.0,55,0.00,,SKC,0.00,VWS V14.00,2013-12-18 18:05:00,
2013-12-18 10:06:00,28.1,14.0,29.97,West,270,0.0,0.0,55,0.00,,SKC,0.00,VWS V14.00,2013-12-18 18:06:00,
2013-12-18 10:07:00,28.1,14.0,29.97,West,270,0.0,0.0,55,0.00,,SKC,0.00,VWS V14.00,2013-12-18 18:07:00,
2013-12-18 10:08:00,28.1,14.0,29.97,West,270,0.0,0.0,55,0.00,,SKC,0.00,VWS V14.00,2013-12-18 18:08:00,
2013-12-18 10:09:00,28.3,14.2,29.97,West,270,0.0,0.0,55,0.00,,SKC,0.00,VWS V14.00,2013-12-18 18:09:00,
2013-12-18 10:10:00,28.6,14.5,29.97,West,270,0.0,0.0,55,0.00,,SKC,0.00,VWS V14.00,2013-12-18 18:10:00,
2013-12-18 10:11:00,29.0,14.4,29.97,West,270,0.0,0.0,54,0.00,,SKC,0.00,VWS V14.00,2013-12-18 18:11:00,
2013-12-18 10:12:00,29.2,15.0,29.97,West,270,0.0,0.0,55,0.00,,SKC,0.00,VWS V14.00,2013-12-18 18:12:00,
2013-12-18 10:13:00,29.5,15.4,29.97,West,270,0.0,0.0,55,0.00,,SKC,0.00,VWS V14.00,2013-12-18 18:13:00,
2013-12-18 10:14:00,29.9,15.3,29.97,West,270,0.0,0.0,54,0.00,,SKC,0.00,VWS V14.00,2013-12-18 18:14:00,
2013-12-18 10:16:00,30.2,15.2,29.97,West,270,0.0,0.0,53,0.00,,SKC,0.00,VWS V14.00,2013-12-18 18:16:00,
2013-12-18 10:17:00,30.2,14.7,29.97,West,270,0.0,0.0,52,0.00,,SKC,0.00,VWS V14.00,2013-12-18 18:17:00,
2013-12-18 10:18:00,30.6,15.5,29.97,West,270,0.0,0.0,53,0.00,,SKC,0.00,VWS V14.00,2013-12-18 18:18:00,
2013-12-18 10:19:00,30.8,15.7,29.97,West,270,0.0,0.0,53,0.00,,SKC,0.00,VWS V14.00,2013-12-18 18:19:00,
2013-12-18 10:21:00,31.1,15.6,29.97,West,270,0.0,0.0,52,0.00,,SKC,0.00,VWS V14.00,2013-12-18 18:21:00,
2013-12-18 10:22:00,31.1,15.6,29.97,West,270,0.0,0.0,52,0.00,,SKC,0.00,VWS V14.00,2013-12-18 18:22:00,
2013-12-18 10:23:00,31.3,14.9,29.97,West,270,0.0,0.0,50,0.00,,SKC,0.00,VWS V14.00,2013-12-18 18:23:00,
2013-12-18 10:24:00,31.3,14.9,29.97,West,270,0.0,0.0,50,0.00,,SKC,0.00,VWS V14.00,2013-12-18 18:24:00,
2013-12-18 10:25:00,31.5,15.5,29.97,NNE,22,0.0,0.0,51,0.00,,SKC,0.00,VWS V14.00,2013-12-18 18:25:00,
2013-12-18 10:26:00,31.3,14.9,29.97,NNE,22,0.0,0.0,50,0.00,,SKC,0.00,VWS V14.00,2013-12-18 18:26:00,
2013-12-18 10:27:00,31.0,13.1,29.97,NNE,22,0.0,0.0,47,0.00,,SKC,0.00,VWS V14.00,2013-12-18 18:27:00,
2013-12-18 10:28:00,30.6,12.8,29.94,NNW,338,0.0,0.0,47,0.00,,SKC,0.00,VWS V14.00,2013-12-18 18:28:00,
2013-12-18 10:29:00,30.6,12.8,29.94,NNW,338,0.0,0.0,47,0.00,,SKC,0.00,VWS V14.00,2013-12-18 18:29:00,
2013-12-18 10:30:00,30.2,12.0,29.94,NNW,338,0.0,0.0,46,0.00,,SKC,0.00,VWS V14.00,2013-12-18 18:30:00,
2013-12-18 10:32:00,30.2,13.4,29.94,NW,315,2.2,2.2,49,0.00,,SKC,0.00,VWS V14.00,2013-12-18 18:32:00,
2013-12-18 10:34:00,30.2,12.4,29.94,NNW,338,0.0,0.0,47,0.00,,SKC,0.00,VWS V14.00,2013-12-18 18:34:00,
2013-12-18 10:35:00,30.1,11.3,29.94,NNE,22,0.0,0.0,45,0.00,,SKC,0.00,VWS V14.00,2013-12-18 18:35:00,
2013-12-18 10:37:00,30.2,12.9,29.94,NNE,22,0.0,0.0,48,0.00,,SKC,0.00,VWS V14.00,2013-12-18 18:37:00,
2013-12-18 10:39:00,30.6,13.3,29.94,NNE,22,0.0,0.0,48,0.00,,SKC,0.00,VWS V14.00,2013-12-18 18:39:00,
2013-12-18 10:40:00,30.8,13.4,29.94,NNE,22,0.0,0.0,48,0.00,,SKC,0.00,VWS V14.00,2013-12-18 18:40:00,
2013-12-18 10:42:00,31.0,13.1,29.94,North,0,0.0,0.0,47,0.00,,SKC,0.00,VWS V14.00,2013-12-18 18:42:00,
2013-12-18 10:43:00,31.0,13.6,29.94,NNW,338,0.0,0.0,48,0.00,,SKC,0.00,VWS V14.00,2013-12-18 18:43:00,
2013-12-18 10:44:00,30.8,13.4,29.94,North,0,0.0,0.0,48,0.00,,SKC,0.00,VWS V14.00,2013-12-18 18:44:00,
2013-12-18 10:45:00,30.8,13.4,29.94,North,0,0.0,0.0,48,0.00,,SKC,0.00,VWS V14.00,2013-12-18 18:45:00,
2013-12-18 10:46:00,30.8,13.4,29.94,West,270,2.0,2.0,48,0.00,,SKC,0.00,VWS V14.00,2013-12-18 18:46:00,
2013-12-18 10:47:00,30.6,12.3,29.94,West,270,1.1,1.1,46,0.00,,SKC,0.00,VWS V14.00,2013-12-18 18:47:00,
2013-12-18 10:48:00,30.6,12.3,29.94,West,270,0.0,0.0,46,0.00,,SKC,0.00,VWS V14.00,2013-12-18 18:48:00,
2013-12-18 10:49:00,30.6,12.8,29.94,WSW,248,2.5,2.5,47,0.00,,SKC,0.00,VWS V14.00,2013-12-18 18:49:00,
2013-12-18 10:50:00,30.4,12.1,29.94,WSW,248,0.9,0.9,46,0.00,,SKC,0.00,VWS V14.00,2013-12-18 18:50:00,
2013-12-18 10:51:00,30.4,12.1,29.94,WSW,248,0.0,0.0,46,0.00,,SKC,0.00,VWS V14.00,2013-12-18 18:51:00,
2013-12-18 10:52:00,30.6,12.3,29.94,WSW,248,0.0,0.0,46,0.00,,SKC,0.00,VWS V14.00,2013-12-18 18:52:00,
2013-12-18 10:53:00,30.6,12.3,29.94,WSW,248,0.9,0.9,46,0.00,,SKC,0.00,VWS V14.00,2013-12-18 18:53:00,
2013-12-18 10:54:00,30.4,12.6,29.94,WSW,248,0.0,0.0,47,0.00,,SKC,0.00,VWS V14.00,2013-12-18 18:54:00,
2013-12-18 10:55:00,30.4,12.6,29.94,WSW,248,0.0,0.0,47,0.00,,SKC,0.00,VWS V14.00,2013-12-18 18:55:00,
2013-12-18 10:56:00,30.8,12.9,29.94,WSW,248,0.0,0.0,47,0.00,,SKC,0.00,VWS V14.00,2013-12-18 18:56:00,
2013-12-18 10:57:00,31.0,13.1,29.94,WSW,248,0.0,0.0,47,0.00,,SKC,0.00,VWS V14.00,2013-12-18 18:57:00,
2013-12-18 10:58:00,31.0,13.1,29.94,WSW,248,0.0,0.0,47,0.00,,SKC,0.00,VWS V14.00,2013-12-18 18:58:00,
2013-12-18 10:59:00,31.0,13.1,29.94,West,270,1.6,1.6,47,0.00,,SKC,0.00,VWS V14.00,2013-12-18 18:59:00,
2013-12-18 11:00:00,31.0,13.1,29.94,WSW,248,2.5,2.5,47,0.00,,SKC,0.00,VWS V14.00,2013-12-18 19:00:00,
2013-12-18 11:01:00,31.0,12.6,29.94,WSW,248,0.0,0.0,46,0.00,,SKC,0.00,VWS V14.00,2013-12-18 19:01:00,
2013-12-18 11:02:00,31.0,12.6,29.94,WSW,248,0.0,0.0,46,0.00,,SKC,0.00,VWS V14.00,2013-12-18 19:02:00,
2013-12-18 11:03:00,31.3,12.9,29.94,SW,225,0.0,0.0,46,0.00,,SKC,0.00,VWS V14.00,2013-12-18 19:03:00,
2013-12-18 11:04:00,31.1,11.8,29.94,SW,225,0.0,0.0,44,0.00,,SKC,0.00,VWS V14.00,2013-12-18 19:04:00,
2013-12-18 11:05:00,31.1,11.8,29.94,SW,225,0.0,0.0,44,0.00,,SKC,0.00,VWS V14.00,2013-12-18 19:05:00,
2013-12-18 11:06:00,31.0,11.6,29.94,SW,225,0.0,0.0,44,0.00,,SKC,0.00,VWS V14.00,2013-12-18 19:06:00,
2013-12-18 11:08:00,30.8,11.5,29.94,SW,225,0.0,0.0,44,0.00,,SKC,0.00,VWS V14.00,2013-12-18 19:08:00,
2013-12-18 11:09:00,31.0,11.6,29.94,SW,225,0.0,0.0,44,0.00,,SKC,0.00,VWS V14.00,2013-12-18 19:09:00,
2013-12-18 11:10:00,31.0,11.6,29.94,SW,225,0.0,0.0,44,0.00,,SKC,0.00,VWS V14.00,2013-12-18 19:10:00,
2013-12-18 11:11:00,31.0,11.6,29.94,WSW,248,0.0,0.0,44,0.00,,SKC,0.00,VWS V14.00,2013-12-18 19:11:00,
2013-12-18 11:13:00,31.3,11.9,29.94,WSW,248,0.0,0.0,44,0.00,,SKC,0.00,VWS V14.00,2013-12-18 19:13:00,
2013-12-18 11:14:00,31.5,12.1,29.94,WSW,248,0.0,0.0,44,0.00,,SKC,0.00,VWS V14.00,2013-12-18 19:14:00,
2013-12-18 11:15:00,31.5,12.6,29.94,WSW,248,0.0,0.0,45,0.00,,SKC,0.00,VWS V14.00,2013-12-18 19:15:00,
2013-12-18 11:16:00,31.5,12.1,29.94,WSW,248,0.0,0.0,44,0.00,,SKC,0.00,VWS V14.00,2013-12-18 19:16:00,
2013-12-18 11:19:00,32.0,12.6,29.94,WSW,248,0.0,0.0,44,0.00,,SKC,0.00,VWS V14.00,2013-12-18 19:19:00,
2013-12-18 11:20:00,32.0,12.6,29.94,WSW,248,0.0,0.0,44,0.00,,SKC,0.00,VWS V14.00,2013-12-18 19:20:00,
2013-12-18 11:21:00,32.6,13.1,29.94,WSW,248,0.0,0.0,44,0.00,,SKC,0.00,VWS V14.00,2013-12-18 19:21:00,
2013-12-18 11:24:00,33.3,13.8,29.94,WSW,248,0.0,0.0,44,0.00,,SKC,0.00,VWS V14.00,2013-12-18 19:24:00,
2013-12-18 11:25:00,32.9,12.9,29.94,SW,225,0.0,0.0,43,0.00,,SKC,0.00,VWS V14.00,2013-12-18 19:25:00,
2013-12-18 11:26:00,32.9,12.9,29.94,SW,225,0.0,0.0,43,0.00,,SKC,0.00,VWS V14.00,2013-12-18 19:26:00,
2013-12-18 11:29:00,32.9,12.9,29.91,SE,135,0.0,0.0,43,0.00,,SKC,0.00,VWS V14.00,2013-12-18 19:29:00,
2013-12-18 11:30:00,32.9,12.9,29.91,SE,135,0.0,0.0,43,0.00,,SKC,0.00,VWS V14.00,2013-12-18 19:30:00,
2013-12-18 11:31:00,33.1,13.1,29.91,SE,135,0.0,0.0,43,0.00,,SKC,0.00,VWS V14.00,2013-12-18 19:31:00,
2013-12-18 11:32:00,33.1,13.1,29.91,SE,135,0.0,0.0,43,0.00,,SKC,0.00,VWS V14.00,2013-12-18 19:32:00,
2013-12-18 11:35:00,33.3,12.7,29.91,NNW,338,0.0,0.0,42,0.00,,SKC,0.00,VWS V14.00,2013-12-18 19:35:00,
2013-12-18 11:37:00,33.3,12.7,29.91,ENE,68,0.0,0.0,42,0.00,,SKC,0.00,VWS V14.00,2013-12-18 19:37:00,
2013-12-18 11:40:00,33.3,12.7,29.91,East,90,0.0,0.0,42,0.00,,SKC,0.00,VWS V14.00,2013-12-18 19:40:00,
2013-12-18 11:42:00,33.7,13.0,29.91,East,90,0.0,0.0,42,0.00,,SKC,0.00,VWS V14.00,2013-12-18 19:42:00,
2013-12-18 11:45:00,33.7,13.0,29.91,ENE,68,0.0,0.0,42,0.00,,SKC,0.00,VWS V14.00,2013-12-18 19:45:00,
2013-12-18 11:47:00,33.8,13.2,29.91,NE,45,0.0,0.0,42,0.00,,SKC,0.00,VWS V14.00,2013-12-18 19:47:00,
2013-12-18 11:50:00,33.8,12.6,29.91,NE,45,0.0,0.0,41,0.00,,SKC,0.00,VWS V14.00,2013-12-18 19:50:00,
2013-12-18 11:52:00,33.8,13.2,29.91,NE,45,0.0,0.0,42,0.00,,SKC,0.00,VWS V14.00,2013-12-18 19:52:00,
2013-12-18 11:53:00,33.8,13.2,29.91,NE,45,0.0,0.0,42,0.00,,SKC,0.00,VWS V14.00,2013-12-18 19:53:00,
2013-12-18 11:55:00,34.0,12.8,29.91,NE,45,0.0,0.0,41,0.00,,SKC,0.00,VWS V14.00,2013-12-18 19:55:00,
2013-12-18 11:56:00,34.0,12.8,29.91,NE,45,0.0,0.0,41,0.00,,SKC,0.00,VWS V14.00,2013-12-18 19:56:00,
2013-12-18 11:57:00,34.0,12.8,29.91,East,90,0.0,0.0,41,0.00,,SKC,0.00,VWS V14.00,2013-12-18 19:57:00,
2013-12-18 11:58:00,33.8,12.6,29.91,ENE,68,0.0,0.0,41,0.00,,SKC,0.00,VWS V14.00,2013-12-18 19:58:00,
2013-12-18 12:00:00,34.0,12.8,29.88,ENE,68,0.0,0.0,41,0.00,,SKC,0.00,VWS V14.00,2013-12-18 20:00:00,
2013-12-18 12:01:00,34.0,12.8,29.88,ENE,68,0.0,0.0,41,0.00,,SKC,0.00,VWS V14.00,2013-12-18 20:01:00,
2013-12-18 12:02:00,34.2,13.0,29.88,ENE,68,0.0,0.0,41,0.00,,SKC,0.00,VWS V14.00,2013-12-18 20:02:00,
2013-12-18 12:03:00,34.4,13.1,29.88,ENE,68,0.0,0.0,41,0.00,,SKC,0.00,VWS V14.00,2013-12-18 20:03:00,
2013-12-18 12:06:00,34.7,12.9,29.88,ENE,68,0.0,0.0,40,0.00,,SKC,0.00,VWS V14.00,2013-12-18 20:06:00,
2013-12-18 12:07:00,34.9,13.6,29.88,ENE,68,0.0,0.0,41,0.00,,SKC,0.00,VWS V14.00,2013-12-18 20:07:00,
2013-12-18 12:08:00,34.7,12.9,29.88,ENE,68,0.0,0.0,40,0.00,,SKC,0.00,VWS V14.00,2013-12-18 20:08:00,
2013-12-18 12:11:00,34.7,12.9,29.88,East,90,0.0,0.0,40,0.00,,SKC,0.00,VWS V14.00,2013-12-18 20:11:00,
2013-12-18 12:12:00,34.9,13.6,29.88,North,0,0.0,0.0,41,0.00,,SKC,0.00,VWS V14.00,2013-12-18 20:12:00,
2013-12-18 12:13:00,34.9,13.1,29.88,North,0,0.0,0.0,40,0.00,,SKC,0.00,VWS V14.00,2013-12-18 20:13:00,
2013-12-18 12:16:00,34.9,13.1,29.88,North,0,0.0,0.0,40,0.00,,SKC,0.00,VWS V14.00,2013-12-18 20:16:00,
2013-12-18 12:17:00,34.9,13.1,29.88,North,0,0.0,0.0,40,0.00,,SKC,0.00,VWS V14.00,2013-12-18 20:17:00,
2013-12-18 12:18:00,35.1,13.2,29.88,North,0,0.0,0.0,40,0.00,,SKC,0.00,VWS V14.00,2013-12-18 20:18:00,
2013-12-18 12:19:00,35.5,13.6,29.88,North,0,0.0,0.0,40,0.00,,SKC,0.00,VWS V14.00,2013-12-18 20:19:00,
2013-12-18 12:21:00,36.0,14.0,29.88,North,0,0.0,0.0,40,0.00,,SKC,0.00,VWS V14.00,2013-12-18 20:21:00,
2013-12-18 12:22:00,36.4,14.4,29.88,North,0,0.0,0.0,40,0.00,,SKC,0.00,VWS V14.00,2013-12-18 20:22:00,
2013-12-18 12:23:00,36.4,14.4,29.88,North,0,0.0,0.0,40,0.00,,SKC,0.00,VWS V14.00,2013-12-18 20:23:00,
2013-12-18 12:24:00,36.4,14.4,29.88,North,0,0.0,0.0,40,0.00,,SKC,0.00,VWS V14.00,2013-12-18 20:24:00,
2013-12-18 12:26:00,36.4,13.8,29.88,North,0,0.0,0.0,39,0.00,,SKC,0.00,VWS V14.00,2013-12-18 20:26:00,
2013-12-18 12:27:00,36.4,13.8,29.88,ENE,68,0.0,0.0,39,0.00,,SKC,0.00,VWS V14.00,2013-12-18 20:27:00,
2013-12-18 12:28:00,36.5,13.9,29.88,ENE,68,0.0,0.0,39,0.00,,SKC,0.00,VWS V14.00,2013-12-18 20:28:00,
2013-12-18 12:29:00,36.5,13.9,29.85,ENE,68,0.0,0.0,39,0.00,,SKC,0.00,VWS V14.00,2013-12-18 20:29:00,
2013-12-18 12:31:00,36.9,14.3,29.85,SE,135,0.0,0.0,39,0.00,,SKC,0.00,VWS V14.00,2013-12-18 20:31:00,
2013-12-18 12:33:00,37.1,14.4,29.85,SE,135,0.0,0.0,39,0.00,,SKC,0.00,VWS V14.00,2013-12-18 20:33:00,
2013-12-18 12:34:00,37.1,14.4,29.85,SE,135,0.0,0.0,39,0.00,,SKC,0.00,VWS V14.00,2013-12-18 20:34:00,
2013-12-18 12:35:00,37.4,14.8,29.85,SE,135,0.0,0.0,39,0.00,,SKC,0.00,VWS V14.00,2013-12-18 20:35:00,
2013-12-18 12:36:00,37.8,14.5,29.85,NNW,338,0.0,0.0,38,0.00,,SKC,0.00,VWS V14.00,2013-12-18 20:36:00,
2013-12-18 12:37:00,38.0,14.6,29.85,NNW,338,0.0,0.0,38,0.00,,SKC,0.00,VWS V14.00,2013-12-18 20:37:00,
2013-12-18 12:38:00,38.0,14.6,29.85,NW,315,0.0,0.0,38,0.00,,SKC,0.00,VWS V14.00,2013-12-18 20:38:00,
2013-12-18 12:39:00,38.0,14.6,29.85,NW,315,0.0,0.0,38,0.00,,SKC,0.00,VWS V14.00,2013-12-18 20:39:00,
2013-12-18 12:40:00,38.7,15.3,29.85,NW,315,0.0,0.0,38,0.00,,SKC,0.00,VWS V14.00,2013-12-18 20:40:00,
2013-12-18 12:41:00,40.1,16.6,29.85,NW,315,0.0,0.0,38,0.00,,SKC,0.00,VWS V14.00,2013-12-18 20:41:00,
2013-12-18 12:42:00,40.5,16.9,29.85,NW,315,0.0,0.0,38,0.00,,SKC,0.00,VWS V14.00,2013-12-18 20:42:00,
2013-12-18 12:43:00,40.5,16.9,29.85,WSW,248,0.0,0.0,38,0.00,,SKC,0.00,VWS V14.00,2013-12-18 20:43:00,
2013-12-18 12:44:00,41.0,17.4,29.85,WSW,248,0.0,0.0,38,0.00,,SKC,0.00,VWS V14.00,2013-12-18 20:44:00,
2013-12-18 12:45:00,41.2,17.5,29.85,WSW,248,0.0,0.0,38,0.00,,SKC,0.00,VWS V14.00,2013-12-18 20:45:00,
2013-12-18 12:46:00,41.6,16.6,29.85,WSW,248,0.0,0.0,36,0.00,,SKC,0.00,VWS V14.00,2013-12-18 20:46:00,
2013-12-18 12:47:00,42.1,17.7,29.85,West,270,0.9,0.9,37,0.00,,SKC,0.00,VWS V14.00,2013-12-18 20:47:00,
2013-12-18 12:48:00,42.7,17.6,29.85,NE,45,0.0,0.0,36,0.00,,SKC,0.00,VWS V14.00,2013-12-18 20:48:00,
2013-12-18 12:49:00,43.9,18.0,29.85,NE,45,0.0,0.0,35,0.00,,SKC,0.00,VWS V14.00,2013-12-18 20:49:00,
2013-12-18 12:50:00,44.6,18.7,29.85,NE,45,0.0,0.0,35,0.00,,SKC,0.00,VWS V14.00,2013-12-18 20:50:00,
2013-12-18 12:51:00,45.4,18.0,29.85,NE,45,0.0,0.0,33,0.00,,SKC,0.00,VWS V14.00,2013-12-18 20:51:00,
2013-12-18 12:52:00,45.5,15.9,29.85,NE,45,0.0,0.0,30,0.00,,SKC,0.00,VWS V14.00,2013-12-18 20:52:00,
2013-12-18 12:53:00,45.9,17.7,29.85,NE,45,0.0,0.0,32,0.00,,SKC,0.00,VWS V14.00,2013-12-18 20:53:00,
2013-12-18 12:55:00,45.4,15.8,29.85,WNW,292,0.9,0.9,30,0.00,,SKC,0.00,VWS V14.00,2013-12-18 20:55:00,
2013-12-18 12:56:00,44.8,16.0,29.85,North,0,0.0,0.0,31,0.00,,SKC,0.00,VWS V14.00,2013-12-18 20:56:00,
2013-12-18 12:57:00,43.2,14.6,29.85,NW,315,0.0,0.0,31,0.00,,SKC,0.00,VWS V14.00,2013-12-18 20:57:00,
2013-12-18 12:58:00,42.1,12.9,29.82,WNW,292,0.0,0.0,30,0.00,,SKC,0.00,VWS V14.00,2013-12-18 20:58:00,
2013-12-18 13:00:00,40.7,11.7,29.82,North,0,0.0,0.0,30,0.00,,SKC,0.00,VWS V14.00,2013-12-18 21:00:00,
2013-12-18 13:01:00,39.6,10.7,29.82,North,0,0.0,0.0,30,0.00,,SKC,0.00,VWS V14.00,2013-12-18 21:01:00,
2013-12-18 13:02:00,39.1,10.3,29.82,North,0,0.0,0.0,30,0.00,,SKC,0.00,VWS V14.00,2013-12-18 21:02:00,
2013-12-18 13:03:00,38.3,10.4,29.82,NNE,22,0.0,0.0,31,0.00,,SKC,0.00,VWS V14.00,2013-12-18 21:03:00,
2013-12-18 13:04:00,38.3,10.4,29.82,NNW,338,0.0,0.0,31,0.00,,SKC,0.00,VWS V14.00,2013-12-18 21:04:00,
2013-12-18 13:05:00,38.0,10.1,29.82,NNW,338,0.0,0.0,31,0.00,,SKC,0.00,VWS V14.00,2013-12-18 21:05:00,
2013-12-18 13:06:00,37.8,9.9,29.82,NNE,22,0.0,0.0,31,0.00,,SKC,0.00,VWS V14.00,2013-12-18 21:06:00,
2013-12-18 13:08:00,38.0,10.1,29.82,NNE,22,0.0,0.0,31,0.00,,SKC,0.00,VWS V14.00,2013-12-18 21:08:00,
2013-12-18 13:09:00,38.0,10.1,29.82,NNE,22,0.0,0.0,31,0.00,,SKC,0.00,VWS V14.00,2013-12-18 21:09:00,
2013-12-18 13:10:00,41.6,13.2,29.82,NNE,22,0.0,0.0,31,0.00,,SKC,0.00,VWS V14.00,2013-12-18 21:10:00,
2013-12-18 13:11:00,42.8,14.3,29.82,North,0,0.0,0.0,31,0.00,,SKC,0.00,VWS V14.00,2013-12-18 21:11:00,
2013-12-18 13:12:00,42.8,14.3,29.82,North,0,0.0,0.0,31,0.00,,SKC,0.00,VWS V14.00,2013-12-18 21:12:00,
2013-12-18 13:14:00,41.9,12.8,29.82,North,0,0.0,0.0,30,0.00,,SKC,0.00,VWS V14.00,2013-12-18 21:14:00,
2013-12-18 13:15:00,42.3,13.1,29.82,NE,45,0.0,0.0,30,0.00,,SKC,0.00,VWS V14.00,2013-12-18 21:15:00,
2013-12-18 13:16:00,43.4,14.0,29.82,NNE,22,0.0,0.0,30,0.00,,SKC,0.00,VWS V14.00,2013-12-18 21:16:00,
2013-12-18 13:17:00,43.9,13.7,29.82,NNE,22,4.9,4.9,29,0.00,,SKC,0.00,VWS V14.00,2013-12-18 21:17:00,
2013-12-18 13:19:00,45.5,15.1,29.82,NNE,22,2.7,2.7,29,0.00,,SKC,0.00,VWS V14.00,2013-12-18 21:19:00,
2013-12-18 13:20:00,45.5,15.1,29.82,NE,45,1.1,1.1,29,0.00,,SKC,0.00,VWS V14.00,2013-12-18 21:20:00,
2013-12-18 13:21:00,47.5,16.9,29.82,NE,45,0.0,0.0,29,0.00,,SKC,0.00,VWS V14.00,2013-12-18 21:21:00,
2013-12-18 13:22:00,48.4,16.8,29.82,NE,45,0.0,0.0,28,0.00,,SKC,0.00,VWS V14.00,2013-12-18 21:22:00,
2013-12-18 13:24:00,48.4,16.8,29.82,NE,45,2.2,2.2,28,0.00,,SKC,0.00,VWS V14.00,2013-12-18 21:24:00,
2013-12-18 13:25:00,48.4,16.8,29.82,East,90,1.1,1.1,28,0.00,,SKC,0.00,VWS V14.00,2013-12-18 21:25:00,
2013-12-18 13:26:00,47.7,15.4,29.82,East,90,0.0,0.0,27,0.00,,SKC,0.00,VWS V14.00,2013-12-18 21:26:00,
2013-12-18 13:27:00,47.7,15.4,29.82,East,90,0.0,0.0,27,0.00,,SKC,0.00,VWS V14.00,2013-12-18 21:27:00,
2013-12-18 13:30:00,50.9,17.3,29.82,NE,45,0.0,0.0,26,0.00,,SKC,0.00,VWS V14.00,2013-12-18 21:30:00,
2013-12-18 13:32:00,51.5,17.8,29.82,South,180,0.0,0.0,26,0.00,,SKC,0.00,VWS V14.00,2013-12-18 21:32:00,
2013-12-18 13:35:00,48.2,15.0,29.82,SE,135,0.0,0.0,26,0.00,,SKC,0.00,VWS V14.00,2013-12-18 21:35:00,
2013-12-18 13:37:00,49.3,15.9,29.82,SE,135,0.0,0.0,26,0.00,,SKC,0.00,VWS V14.00,2013-12-18 21:37:00,
2013-12-18 13:38:00,49.7,15.3,29.82,SE,135,0.0,0.0,25,0.00,,SKC,0.00,VWS V14.00,2013-12-18 21:38:00,
2013-12-18 13:40:00,49.5,16.0,29.82,SE,135,0.0,0.0,26,0.00,,SKC,0.00,VWS V14.00,2013-12-18 21:40:00,
2013-12-18 13:42:00,49.5,16.0,29.82,SE,135,2.2,2.2,26,0.00,,SKC,0.00,VWS V14.00,2013-12-18 21:42:00,
2013-12-18 13:43:00,49.5,16.0,29.82,SE,135,1.6,1.6,26,0.00,,SKC,0.00,VWS V14.00,2013-12-18 21:43:00,
2013-12-18 13:45:00,49.3,15.0,29.82,NE,45,0.0,0.0,25,0.00,,SKC,0.00,VWS V14.00,2013-12-18 21:45:00,
2013-12-18 13:48:00,51.5,16.8,29.82,North,0,0.0,0.0,25,0.00,,SKC,0.00,VWS V14.00,2013-12-18 21:48:00,
2013-12-18 13:50:00,50.9,13.5,29.82,East,90,0.0,0.0,22,0.00,,SKC,0.00,VWS V14.00,2013-12-18 21:50:00,
2013-12-18 13:53:00,49.1,12.9,29.82,ENE,68,0.0,0.0,23,0.00,,SKC,0.00,VWS V14.00,2013-12-18 21:53:00,
2013-12-18 13:55:00,49.7,13.4,29.82,ESE,112,0.0,0.0,23,0.00,,SKC,0.00,VWS V14.00,2013-12-18 21:55:00,
2013-12-18 13:56:00,49.7,13.4,29.82,SE,135,0.0,0.0,23,0.00,,SKC,0.00,VWS V14.00,2013-12-18 21:56:00,
2013-12-18 13:58:00,49.1,12.9,29.82,ESE,112,0.0,0.0,23,0.00,,SKC,0.00,VWS V14.00,2013-12-18 21:58:00,
2013-12-18 14:01:00,47.5,11.6,29.79,SE,135,0.0,0.0,23,0.00,,SKC,0.00,VWS V14.00,2013-12-18 22:01:00,
2013-12-18 14:03:00,45.7,11.0,29.79,ESE,112,0.0,0.0,24,0.00,,SKC,0.00,VWS V14.00,2013-12-18 22:03:00,
2013-12-18 14:06:00,45.2,10.6,29.79,East,90,0.0,0.0,24,0.00,,SKC,0.00,VWS V14.00,2013-12-18 22:06:00,
2013-12-18 14:07:00,45.2,10.6,29.79,East,90,0.0,0.0,24,0.00,,SKC,0.00,VWS V14.00,2013-12-18 22:07:00,
2013-12-18 14:08:00,44.6,10.1,29.79,East,90,2.2,2.2,24,0.00,,SKC,0.00,VWS V14.00,2013-12-18 22:08:00,
2013-12-18 14:09:00,43.9,9.5,29.79,ENE,68,2.5,2.5,24,0.00,,SKC,0.00,VWS V14.00,2013-12-18 22:09:00,
2013-12-18 14:11:00,43.2,8.9,29.79,East,90,0.0,0.0,24,0.00,,SKC,0.00,VWS V14.00,2013-12-18 22:11:00,
2013-12-18 14:12:00,43.2,8.9,29.79,East,90,0.0,0.0,24,0.00,,SKC,0.00,VWS V14.00,2013-12-18 22:12:00,
2013-12-18 14:13:00,43.2,8.9,29.79,ENE,68,0.0,0.0,24,0.00,,SKC,0.00,VWS V14.00,2013-12-18 22:13:00,
2013-12-18 14:14:00,43.2,8.9,29.79,NE,45,2.5,2.5,24,0.00,,SKC,0.00,VWS V14.00,2013-12-18 22:14:00,
2013-12-18 14:16:00,43.7,9.3,29.79,SE,135,0.0,0.0,24,0.00,,SKC,0.00,VWS V14.00,2013-12-18 22:16:00,
2013-12-18 14:17:00,43.7,11.1,29.79,NE,45,0.0,0.0,26,0.00,,SKC,0.00,VWS V14.00,2013-12-18 22:17:00,
2013-12-18 14:18:00,43.7,11.1,29.79,ENE,68,0.9,0.9,26,0.00,,SKC,0.00,VWS V14.00,2013-12-18 22:18:00,
2013-12-18 14:20:00,43.7,11.1,29.79,East,90,0.0,0.0,26,0.00,,SKC,0.00,VWS V14.00,2013-12-18 22:20:00,
2013-12-18 14:21:00,43.6,9.2,29.79,East,90,0.0,0.0,24,0.00,,SKC,0.00,VWS V14.00,2013-12-18 22:21:00,
2013-12-18 14:22:00,43.6,11.0,29.79,SE,135,0.0,0.0,26,0.00,,SKC,0.00,VWS V14.00,2013-12-18 22:22:00,
2013-12-18 14:23:00,43.2,10.6,29.79,South,180,1.6,1.6,26,0.00,,SKC,0.00,VWS V14.00,2013-12-18 22:23:00,
2013-12-18 14:24:00,43.4,10.8,29.79,South,180,0.0,0.0,26,0.00,,SKC,0.00,VWS V14.00,2013-12-18 22:24:00,
2013-12-18 14:25:00,43.9,11.3,29.79,SE,135,0.0,0.0,26,0.00,,SKC,0.00,VWS V14.00,2013-12-18 22:25:00,
2013-12-18 14:27:00,44.5,11.7,29.79,SE,135,0.0,0.0,26,0.00,,SKC,0.00,VWS V14.00,2013-12-18 22:27:00,
2013-12-18 14:28:00,46.3,13.3,29.79,SE,135,0.0,0.0,26,0.00,,SKC,0.00,VWS V14.00,2013-12-18 22:28:00,
2013-12-18 14:29:00,47.0,13.9,29.79,SE,135,0.0,0.0,26,0.00,,SKC,0.00,VWS V14.00,2013-12-18 22:29:00,
2013-12-18 14:30:00,48.6,14.4,29.79,SE,135,0.0,0.0,25,0.00,,SKC,0.00,VWS V14.00,2013-12-18 22:30:00,
2013-12-18 14:32:00,49.1,14.9,29.79,NNW,338,0.0,0.0,25,0.00,,SKC,0.00,VWS V14.00,2013-12-18 22:32:00,
2013-12-18 14:33:00,49.9,15.5,29.79,SE,135,0.0,0.0,25,0.00,,SKC,0.00,VWS V14.00,2013-12-18 22:33:00,
2013-12-18 14:34:00,48.8,12.6,29.79,SE,135,0.0,0.0,23,0.00,,SKC,0.00,VWS V14.00,2013-12-18 22:34:00,
2013-12-18 14:35:00,48.4,15.1,29.79,SE,135,0.0,0.0,26,0.00,,SKC,0.00,VWS V14.00,2013-12-18 22:35:00,
2013-12-18 14:37:00,47.0,11.1,29.79,SE,135,0.0,0.0,23,0.00,,SKC,0.00,VWS V14.00,2013-12-18 22:37:00,
2013-12-18 14:38:00,46.3,11.5,29.79,SE,135,0.0,0.0,24,0.00,,SKC,0.00,VWS V14.00,2013-12-18 22:38:00,
2013-12-18 14:40:00,47.0,11.1,29.79,SE,135,0.0,0.0,23,0.00,,SKC,0.00,VWS V14.00,2013-12-18 22:40:00,
2013-12-18 14:42:00,48.1,12.0,29.79,North,0,0.0,0.0,23,0.00,,SKC,0.00,VWS V14.00,2013-12-18 22:42:00,
2013-12-18 14:43:00,49.0,12.8,29.79,NE,45,0.0,0.0,23,0.00,,SKC,0.00,VWS V14.00,2013-12-18 22:43:00,
2013-12-18 14:45:00,49.5,13.2,29.79,NNE,22,0.0,0.0,23,0.00,,SKC,0.00,VWS V14.00,2013-12-18 22:45:00,
2013-12-18 14:47:00,49.7,13.4,29.79,NNW,338,0.0,0.0,23,0.00,,SKC,0.00,VWS V14.00,2013-12-18 22:47:00,
2013-12-18 14:48:00,49.5,13.2,29.79,SE,135,0.0,0.0,23,0.00,,SKC,0.00,VWS V14.00,2013-12-18 22:48:00,
2013-12-18 14:50:00,49.0,12.8,29.79,SE,135,0.0,0.0,23,0.00,,SKC,0.00,VWS V14.00,2013-12-18 22:50:00,
2013-12-18 14:52:00,45.7,8.0,29.79,SE,135,0.0,0.0,21,0.00,,SKC,0.00,VWS V14.00,2013-12-18 22:52:00,
2013-12-18 14:54:00,43.9,9.5,29.79,SE,135,0.0,0.0,24,0.00,,SKC,0.00,VWS V14.00,2013-12-18 22:54:00,
2013-12-18 14:55:00,43.4,9.0,29.79,SE,135,0.0,0.0,24,0.00,,SKC,0.00,VWS V14.00,2013-12-18 22:55:00,
2013-12-18 14:57:00,41.4,7.3,29.79,South,180,0.0,0.0,24,0.00,,SKC,0.00,VWS V14.00,2013-12-18 22:57:00,
2013-12-18 14:58:00,41.0,7.9,29.79,SE,135,0.0,0.0,25,0.00,,SKC,0.00,VWS V14.00,2013-12-18 22:58:00,
2013-12-18 14:59:00,40.9,7.8,29.76,SE,135,0.0,0.0,25,0.00,,SKC,0.00,VWS V14.00,2013-12-18 22:59:00,
2013-12-18 15:02:00,39.6,8.4,29.76,East,90,3.4,3.4,27,0.00,,SKC,0.00,VWS V14.00,2013-12-18 23:02:00,
2013-12-18 15:03:00,39.1,8.7,29.76,East,90,0.0,0.0,28,0.00,,SKC,0.00,VWS V14.00,2013-12-18 23:03:00,
2013-12-18 15:04:00,38.2,7.9,29.76,East,90,1.1,1.1,28,0.00,,SKC,0.00,VWS V14.00,2013-12-18 23:04:00,
2013-12-18 15:07:00,37.1,7.8,29.76,East,90,0.0,0.0,29,0.00,,SKC,0.00,VWS V14.00,2013-12-18 23:07:00,
2013-12-18 15:08:00,36.7,7.5,29.76,East,90,0.0,0.0,29,0.00,,SKC,0.00,VWS V14.00,2013-12-18 23:08:00,
2013-12-18 15:09:00,36.5,7.3,29.76,East,90,0.0,0.0,29,0.00,,SKC,0.00,VWS V14.00,2013-12-18 23:09:00,
2013-12-18 15:12:00,36.0,6.8,29.76,East,90,0.0,0.0,29,0.00,,SKC,0.00,VWS V14.00,2013-12-18 23:12:00,
2013-12-18 15:13:00,35.6,7.3,29.76,ESE,112,0.0,0.0,30,0.00,,SKC,0.00,VWS V14.00,2013-12-18 23:13:00,
2013-12-18 15:14:00,35.5,7.1,29.76,ESE,112,0.0,0.0,30,0.00,,SKC,0.00,VWS V14.00,2013-12-18 23:14:00,
2013-12-18 15:15:00,35.3,7.0,29.76,ESE,112,0.0,0.0,30,0.00,,SKC,0.00,VWS V14.00,2013-12-18 23:15:00,
2013-12-18 15:17:00,34.7,7.2,29.76,East,90,0.0,0.0,31,0.00,,SKC,0.00,VWS V14.00,2013-12-18 23:17:00,
2013-12-18 15:18:00,34.6,7.1,29.76,East,90,0.0,0.0,31,0.00,,SKC,0.00,VWS V14.00,2013-12-18 23:18:00,
2013-12-18 15:19:00,34.6,7.8,29.76,NE,45,0.0,0.0,32,0.00,,SKC,0.00,VWS V14.00,2013-12-18 23:19:00,
2013-12-18 15:20:00,34.6,7.8,29.76,NE,45,0.0,0.0,32,0.00,,SKC,0.00,VWS V14.00,2013-12-18 23:20:00,
2013-12-18 15:22:00,34.4,7.6,29.76,East,90,0.0,0.0,32,0.00,,SKC,0.00,VWS V14.00,2013-12-18 23:22:00,
2013-12-18 15:24:00,34.4,7.6,29.76,East,90,0.0,0.0,32,0.00,,SKC,0.00,VWS V14.00,2013-12-18 23:24:00,
2013-12-18 15:25:00,34.4,7.6,29.76,East,90,0.0,0.0,32,0.00,,SKC,0.00,VWS V14.00,2013-12-18 23:25:00,
2013-12-18 15:28:00,33.8,7.8,29.76,East,90,0.0,0.0,33,0.00,,SKC,0.00,VWS V14.00,2013-12-18 23:28:00,
2013-12-18 15:29:00,33.8,7.8,29.76,East,90,0.0,0.0,33,0.00,,SKC,0.00,VWS V14.00,2013-12-18 23:29:00,
2013-12-18 15:30:00,33.7,7.6,29.76,ENE,68,0.0,0.0,33,0.00,,SKC,0.00,VWS V14.00,2013-12-18 23:30:00,
2013-12-18 15:33:00,33.5,7.5,29.76,ENE,68,0.0,0.0,33,0.00,,SKC,0.00,VWS V14.00,2013-12-18 23:33:00,
2013-12-18 15:34:00,33.5,7.5,29.76,ENE,68,0.0,0.0,33,0.00,,SKC,0.00,VWS V14.00,2013-12-18 23:34:00,
2013-12-18 15:35:00,33.3,7.3,29.76,ENE,68,0.0,0.0,33,0.00,,SKC,0.00,VWS V14.00,2013-12-18 23:35:00,
2013-12-18 15:38:00,32.9,7.7,29.76,ENE,68,0.0,0.0,34,0.00,,SKC,0.00,VWS V14.00,2013-12-18 23:38:00,
2013-12-18 15:39:00,32.6,7.3,29.76,ENE,68,0.0,0.0,34,0.00,,SKC,0.00,VWS V14.00,2013-12-18 23:39:00,
2013-12-18 15:40:00,32.6,7.3,29.76,ENE,68,0.0,0.0,34,0.00,,SKC,0.00,VWS V14.00,2013-12-18 23:40:00,
2013-12-18 15:41:00,32.6,7.3,29.76,ENE,68,0.0,0.0,34,0.00,,SKC,0.00,VWS V14.00,2013-12-18 23:41:00,
2013-12-18 15:43:00,32.4,7.8,29.76,ENE,68,0.0,0.0,35,0.00,,SKC,0.00,VWS V14.00,2013-12-18 23:43:00,
2013-12-18 15:47:00,32.0,9.3,29.76,NE,45,0.0,0.0,38,0.00,,SKC,0.00,VWS V14.00,2013-12-18 23:47:00,
2013-12-18 15:48:00,31.9,8.6,29.76,NE,45,0.0,0.0,37,0.00,,SKC,0.00,VWS V14.00,2013-12-18 23:48:00,
2013-12-18 15:52:00,31.7,8.4,29.76,WSW,248,0.0,0.0,37,0.00,,SKC,0.00,VWS V14.00,2013-12-18 23:52:00,
2013-12-18 15:53:00,31.5,8.2,29.76,WSW,248,0.0,0.0,37,0.00,,SKC,0.00,VWS V14.00,2013-12-18 23:53:00,
2013-12-18 15:58:00,31.0,9.5,29.76,WSW,248,0.0,0.0,40,0.00,,SKC,0.00,VWS V14.00,2013-12-18 23:58:00,
2013-12-18 16:03:00,30.6,9.2,29.76,WSW,248,0.0,0.0,40,0.00,,SKC,0.00,VWS V14.00,2013-12-19 00:03:00,
2013-12-18 16:04:00,30.4,9.6,29.76,WSW,248,0.0,0.0,41,0.00,,SKC,0.00,VWS V14.00,2013-12-19 00:04:00,
2013-12-18 16:08:00,30.2,9.4,29.76,WSW,248,0.0,0.0,41,0.00,,SKC,0.00,VWS V14.00,2013-12-19 00:08:00,
2013-12-18 16:09:00,30.1,9.2,29.76,WSW,248,0.0,0.0,41,0.00,,SKC,0.00,VWS V14.00,2013-12-19 00:09:00,
2013-12-18 16:10:00,30.1,9.2,29.76,WSW,248,0.0,0.0,41,0.00,,SKC,0.00,VWS V14.00,2013-12-19 00:10:00,
2013-12-18 16:13:00,29.9,9.6,29.76,WSW,248,0.0,0.0,42,0.00,,SKC,0.00,VWS V14.00,2013-12-19 00:13:00,
2013-12-18 16:14:00,29.9,9.6,29.74,WSW,248,0.0,0.0,42,0.00,,SKC,0.00,VWS V14.00,2013-12-19 00:14:00,
2013-12-18 16:15:00,29.9,9.6,29.74,WSW,248,0.0,0.0,42,0.00,,SKC,0.00,VWS V14.00,2013-12-19 00:15:00,
2013-12-18 16:18:00,29.7,9.4,29.74,WSW,248,0.0,0.0,42,0.00,,SKC,0.00,VWS V14.00,2013-12-19 00:18:00,
2013-12-18 16:19:00,29.7,9.4,29.74,WSW,248,0.0,0.0,42,0.00,,SKC,0.00,VWS V14.00,2013-12-19 00:19:00,
2013-12-18 16:20:00,29.5,9.3,29.74,WSW,248,0.0,0.0,42,0.00,,SKC,0.00,VWS V14.00,2013-12-19 00:20:00,
2013-12-18 16:23:00,29.5,9.8,29.74,SW,225,0.0,0.0,43,0.00,,SKC,0.00,VWS V14.00,2013-12-19 00:23:00,
2013-12-18 16:24:00,29.5,9.8,29.74,SW,225,0.0,0.0,43,0.00,,SKC,0.00,VWS V14.00,2013-12-19 00:24:00,
2013-12-18 16:25:00,29.3,10.1,29.74,SW,225,0.0,0.0,44,0.00,,SKC,0.00,VWS V14.00,2013-12-19 00:25:00,
2013-12-18 16:28:00,29.3,10.6,29.74,SSW,202,0.0,0.0,45,0.00,,SKC,0.00,VWS V14.00,2013-12-19 00:28:00,
2013-12-18 16:29:00,29.3,10.6,29.74,SSW,202,0.0,0.0,45,0.00,,SKC,0.00,VWS V14.00,2013-12-19 00:29:00,
2013-12-18 16:30:00,29.2,11.0,29.74,SE,135,0.0,0.0,46,0.00,,SKC,0.00,VWS V14.00,2013-12-19 00:30:00,
2013-12-18 16:33:00,29.0,10.8,29.74,SE,135,0.0,0.0,46,0.00,,SKC,0.00,VWS V14.00,2013-12-19 00:33:00,
2013-12-18 16:34:00,29.0,10.8,29.74,SSE,158,1.3,1.3,46,0.00,,SKC,0.00,VWS V14.00,2013-12-19 00:34:00,
2013-12-18 16:35:00,29.0,11.3,29.74,SSE,158,2.0,2.0,47,0.00,,SKC,0.00,VWS V14.00,2013-12-19 00:35:00,
2013-12-18 16:36:00,29.0,11.3,29.74,South,180,2.5,2.5,47,0.00,,SKC,0.00,VWS V14.00,2013-12-19 00:36:00,
2013-12-18 16:38:00,28.8,12.5,29.74,South,180,0.0,0.0,50,0.00,,SKC,0.00,VWS V14.00,2013-12-19 00:38:00,
2013-12-18 16:39:00,28.8,12.5,29.74,South,180,0.0,0.0,50,0.00,,SKC,0.00,VWS V14.00,2013-12-19 00:39:00,
2013-12-18 16:40:00,28.8,13.0,29.74,SSE,158,0.0,0.0,51,0.00,,SKC,0.00,VWS V14.00,2013-12-19 00:40:00,
2013-12-18 16:41:00,28.8,12.5,29.74,SE,135,0.0,0.0,50,0.00,,SKC,0.00,VWS V14.00,2013-12-19 00:41:00,
2013-12-18 16:44:00,28.6,12.4,29.71,SE,135,0.0,0.0,50,0.00,,SKC,0.00,VWS V14.00,2013-12-19 00:44:00,
2013-12-18 16:45:00,28.6,12.8,29.71,SSE,158,0.0,0.0,51,0.00,,SKC,0.00,VWS V14.00,2013-12-19 00:45:00,
2013-12-18 16:46:00,28.6,12.8,29.71,SSE,158,0.0,0.0,51,0.00,,SKC,0.00,VWS V14.00,2013-12-19 00:46:00,
2013-12-18 16:49:00,28.4,12.6,29.71,SSE,158,0.0,0.0,51,0.00,,SKC,0.00,VWS V14.00,2013-12-19 00:49:00,
2013-12-18 16:50:00,28.4,12.6,29.71,SSE,158,0.0,0.0,51,0.00,,SKC,0.00,VWS V14.00,2013-12-19 00:50:00,
2013-12-18 16:51:00,28.3,12.0,29.71,SSE,158,0.0,0.0,50,0.00,,SKC,0.00,VWS V14.00,2013-12-19 00:51:00,
2013-12-18 16:54:00,28.3,12.0,29.71,SSE,158,0.0,0.0,50,0.00,,SKC,0.00,VWS V14.00,2013-12-19 00:54:00,
2013-12-18 16:55:00,28.3,12.0,29.71,SSE,158,0.0,0.0,50,0.00,,SKC,0.00,VWS V14.00,2013-12-19 00:55:00,
2013-12-18 16:56:00,28.1,12.3,29.71,South,180,2.7,2.7,51,0.00,,SKC,0.00,VWS V14.00,2013-12-19 00:56:00,
2013-12-18 16:59:00,28.1,12.7,29.71,South,180,0.0,0.0,52,0.00,,SKC,0.00,VWS V14.00,2013-12-19 00:59:00,
2013-12-18 17:00:00,28.1,12.7,29.71,South,180,0.0,0.0,52,0.00,,SKC,0.00,VWS V14.00,2013-12-19 01:00:00,
2013-12-18 17:01:00,28.1,12.7,29.71,East,90,0.0,0.0,52,0.00,,SKC,0.00,VWS V14.00,2013-12-19 01:01:00,
2013-12-18 17:02:00,28.1,12.7,29.71,East,90,0.0,0.0,52,0.00,,SKC,0.00,VWS V14.00,2013-12-19 01:02:00,
2013-12-18 17:04:00,27.9,12.6,29.71,East,90,0.0,0.0,52,0.00,,SKC,0.00,VWS V14.00,2013-12-19 01:04:00,
2013-12-18 17:05:00,27.9,12.6,29.71,East,90,0.0,0.0,52,0.00,,SKC,0.00,VWS V14.00,2013-12-19 01:05:00,
2013-12-18 17:06:00,27.9,12.6,29.71,SE,135,2.5,2.5,52,0.00,,SKC,0.00,VWS V14.00,2013-12-19 01:06:00,
2013-12-18 17:07:00,27.9,12.6,29.71,SE,135,2.5,2.5,52,0.00,,SKC,0.00,VWS V14.00,2013-12-19 01:07:00,
2013-12-18 17:09:00,27.9,13.0,29.71,South,180,0.0,0.0,53,0.00,,SKC,0.00,VWS V14.00,2013-12-19 01:09:00,
2013-12-18 17:10:00,27.7,12.4,29.71,South,180,0.0,0.0,52,0.00,,SKC,0.00,VWS V14.00,2013-12-19 01:10:00,
2013-12-18 17:12:00,27.7,12.4,29.71,South,180,0.0,0.0,52,0.00,,SKC,0.00,VWS V14.00,2013-12-19 01:12:00,
2013-12-18 17:14:00,27.7,12.4,29.71,South,180,0.0,0.0,52,0.00,,SKC,0.00,VWS V14.00,2013-12-19 01:14:00,
2013-12-18 17:15:00,27.7,12.0,29.71,South,180,0.0,0.0,51,0.00,,SKC,0.00,VWS V14.00,2013-12-19 01:15:00,
2013-12-18 17:16:00,27.7,12.0,29.71,South,180,0.0,0.0,51,0.00,,SKC,0.00,VWS V14.00,2013-12-19 01:16:00,
2013-12-18 17:17:00,27.7,12.0,29.71,South,180,0.0,0.0,51,0.00,,SKC,0.00,VWS V14.00,2013-12-19 01:17:00,
2013-12-18 17:20:00,27.7,12.0,29.71,South,180,0.0,0.0,51,0.00,,SKC,0.00,VWS V14.00,2013-12-19 01:20:00,
2013-12-18 17:21:00,27.7,12.0,29.71,South,180,0.0,0.0,51,0.00,,SKC,0.00,VWS V14.00,2013-12-19 01:21:00,
2013-12-18 17:22:00,27.5,11.8,29.71,South,180,0.0,0.0,51,0.00,,SKC,0.00,VWS V14.00,2013-12-19 01:22:00,
2013-12-18 17:25:00,27.5,11.8,29.71,South,180,0.0,0.0,51,0.00,,SKC,0.00,VWS V14.00,2013-12-19 01:25:00,
2013-12-18 17:26:00,27.5,12.2,29.71,South,180,0.0,0.0,52,0.00,,SKC,0.00,VWS V14.00,2013-12-19 01:26:00,
2013-12-18 17:27:00,27.5,12.2,29.71,South,180,0.0,0.0,52,0.00,,SKC,0.00,VWS V14.00,2013-12-19 01:27:00,
2013-12-18 17:28:00,27.5,12.2,29.71,South,180,0.0,0.0,52,0.00,,SKC,0.00,VWS V14.00,2013-12-19 01:28:00,
2013-12-18 17:30:00,27.5,12.2,29.71,South,180,0.0,0.0,52,0.00,,SKC,0.00,VWS V14.00,2013-12-19 01:30:00,
2013-12-18 17:32:00,27.5,12.2,29.71,South,180,0.0,0.0,52,0.00,,SKC,0.00,VWS V14.00,2013-12-19 01:32:00,
2013-12-18 17:33:00,27.5,12.2,29.71,South,180,0.0,0.0,52,0.00,,SKC,0.00,VWS V14.00,2013-12-19 01:33:00,
2013-12-18 17:35:00,27.5,12.2,29.71,South,180,0.0,0.0,52,0.00,,SKC,0.00,VWS V14.00,2013-12-19 01:35:00,
2013-12-18 17:37:00,27.5,12.2,29.71,South,180,0.0,0.0,52,0.00,,SKC,0.00,VWS V14.00,2013-12-19 01:37:00,
2013-12-18 17:38:00,27.4,12.1,29.71,South,180,0.0,0.0,52,0.00,,SKC,0.00,VWS V14.00,2013-12-19 01:38:00,
2013-12-18 17:40:00,27.4,12.1,29.71,South,180,0.0,0.0,52,0.00,,SKC,0.00,VWS V14.00,2013-12-19 01:40:00,
2013-12-18 17:42:00,27.4,12.5,29.71,South,180,0.0,0.0,53,0.00,,SKC,0.00,VWS V14.00,2013-12-19 01:42:00,
2013-12-18 17:43:00,27.4,12.5,29.71,South,180,0.0,0.0,53,0.00,,SKC,0.00,VWS V14.00,2013-12-19 01:43:00,
2013-12-18 17:45:00,27.4,12.5,29.68,South,180,0.0,0.0,53,0.00,,SKC,0.00,VWS V14.00,2013-12-19 01:45:00,
2013-12-18 17:47:00,27.4,12.5,29.68,South,180,0.0,0.0,53,0.00,,SKC,0.00,VWS V14.00,2013-12-19 01:47:00,
2013-12-18 17:48:00,27.4,12.5,29.68,South,180,0.0,0.0,53,0.00,,SKC,0.00,VWS V14.00,2013-12-19 01:48:00,
2013-12-18 17:49:00,27.2,12.3,29.68,South,180,0.0,0.0,53,0.00,,SKC,0.00,VWS V14.00,2013-12-19 01:49:00,
2013-12-18 17:50:00,27.2,12.3,29.68,South,180,0.0,0.0,53,0.00,,SKC,0.00,VWS V14.00,2013-12-19 01:50:00,
2013-12-18 17:52:00,27.2,12.3,29.68,West,270,2.2,2.2,53,0.00,,SKC,0.00,VWS V14.00,2013-12-19 01:52:00,
2013-12-18 17:53:00,27.2,12.3,29.68,West,270,2.0,2.0,53,0.00,,SKC,0.00,VWS V14.00,2013-12-19 01:53:00,
2013-12-18 17:55:00,27.2,12.8,29.68,West,270,2.5,2.5,54,0.00,,SKC,0.00,VWS V14.00,2013-12-19 01:55:00,
2013-12-18 17:58:00,27.2,12.8,29.68,WNW,292,0.0,0.0,54,0.00,,SKC,0.00,VWS V14.00,2013-12-19 01:58:00,
2013-12-18 18:00:00,27.2,12.8,29.74,WNW,292,0.0,0.0,54,0.00,,SKC,0.00,VWS V14.00,2013-12-19 02:00:00,
2013-12-18 18:01:00,27.2,12.8,29.74,WNW,292,0.0,0.0,54,0.00,,SKC,0.00,VWS V14.00,2013-12-19 02:01:00,
2013-12-18 18:03:00,27.2,12.8,29.74,WNW,292,0.0,0.0,54,0.00,,SKC,0.00,VWS V14.00,2013-12-19 02:03:00,
2013-12-18 18:04:00,27.2,12.8,29.74,WNW,292,0.0,0.0,54,0.00,,SKC,0.00,VWS V14.00,2013-12-19 02:04:00,
2013-12-18 18:05:00,27.2,12.8,29.74,WNW,292,0.0,0.0,54,0.00,,SKC,0.00,VWS V14.00,2013-12-19 02:05:00,
2013-12-18 18:06:00,27.2,12.8,29.74,WNW,292,0.0,0.0,54,0.00,,SKC,0.00,VWS V14.00,2013-12-19 02:06:00,
2013-12-18 18:08:00,27.2,13.2,29.74,WNW,292,0.0,0.0,55,0.00,,SKC,0.00,VWS V14.00,2013-12-19 02:08:00,
2013-12-18 18:09:00,27.2,13.2,29.74,WNW,292,0.0,0.0,55,0.00,,SKC,0.00,VWS V14.00,2013-12-19 02:09:00,
2013-12-18 18:10:00,27.2,13.2,29.74,WNW,292,0.0,0.0,55,0.00,,SKC,0.00,VWS V14.00,2013-12-19 02:10:00,
2013-12-18 18:11:00,27.2,13.2,29.74,WNW,292,0.0,0.0,55,0.00,,SKC,0.00,VWS V14.00,2013-12-19 02:11:00,
2013-12-18 18:13:00,27.2,13.6,29.71,WNW,292,0.0,0.0,56,0.00,,SKC,0.00,VWS V14.00,2013-12-19 02:13:00,
2013-12-18 18:14:00,27.2,13.6,29.71,WNW,292,0.0,0.0,56,0.00,,SKC,0.00,VWS V14.00,2013-12-19 02:14:00,
2013-12-18 18:15:00,27.2,14.0,29.71,WNW,292,0.0,0.0,57,0.00,,SKC,0.00,VWS V14.00,2013-12-19 02:15:00,
2013-12-18 18:16:00,27.2,14.0,29.71,WNW,292,0.0,0.0,57,0.00,,SKC,0.00,VWS V14.00,2013-12-19 02:16:00,
2013-12-18 18:17:00,27.2,14.0,29.71,WNW,292,0.0,0.0,57,0.00,,SKC,0.00,VWS V14.00,2013-12-19 02:17:00,
2013-12-18 18:19:00,27.2,13.6,29.71,WNW,292,0.0,0.0,56,0.00,,SKC,0.00,VWS V14.00,2013-12-19 02:19:00,
2013-12-18 18:20:00,27.2,13.6,29.71,WNW,292,0.0,0.0,56,0.00,,SKC,0.00,VWS V14.00,2013-12-19 02:20:00,
2013-12-18 18:21:00,27.2,13.6,29.71,WNW,292,0.0,0.0,56,0.00,,SKC,0.00,VWS V14.00,2013-12-19 02:21:00,
2013-12-18 18:22:00,27.2,13.6,29.71,WNW,292,0.0,0.0,56,0.00,,SKC,0.00,VWS V14.00,2013-12-19 02:22:00,
2013-12-18 18:24:00,27.2,13.6,29.71,WNW,292,0.0,0.0,56,0.00,,SKC,0.00,VWS V14.00,2013-12-19 02:24:00,
2013-12-18 18:25:00,27.2,13.6,29.71,SE,135,0.0,0.0,56,0.00,,SKC,0.00,VWS V14.00,2013-12-19 02:25:00,
2013-12-18 18:26:00,27.2,13.6,29.71,SE,135,0.0,0.0,56,0.00,,SKC,0.00,VWS V14.00,2013-12-19 02:26:00,
2013-12-18 18:27:00,27.2,14.0,29.71,SSW,202,1.6,1.6,57,0.00,,SKC,0.00,VWS V14.00,2013-12-19 02:27:00,
2013-12-18 18:29:00,27.2,14.4,29.68,SE,135,0.0,0.0,58,0.00,,SKC,0.00,VWS V14.00,2013-12-19 02:29:00,
2013-12-18 18:30:00,27.2,14.4,29.68,SE,135,0.0,0.0,58,0.00,,SKC,0.00,VWS V14.00,2013-12-19 02:30:00,
2013-12-18 18:31:00,27.2,14.4,29.68,SE,135,0.0,0.0,58,0.00,,SKC,0.00,VWS V14.00,2013-12-19 02:31:00,
2013-12-18 18:32:00,27.2,14.4,29.68,NNE,22,0.0,0.0,58,0.00,,SKC,0.00,VWS V14.00,2013-12-19 02:32:00,
2013-12-18 18:33:00,27.2,15.5,29.68,North,0,0.0,0.0,61,0.00,,SKC,0.00,VWS V14.00,2013-12-19 02:33:00,
2013-12-18 18:34:00,27.2,16.3,29.68,North,0,0.0,0.0,63,0.00,,SKC,0.00,VWS V14.00,2013-12-19 02:34:00,
2013-12-18 18:35:00,27.2,16.3,29.68,North,0,0.0,0.0,63,0.00,,SKC,0.00,VWS V14.00,2013-12-19 02:35:00,
2013-12-18 18:36:00,27.2,16.3,29.68,North,0,0.0,0.0,63,0.00,,SKC,0.00,VWS V14.00,2013-12-19 02:36:00,
2013-12-18 18:37:00,27.0,15.0,29.68,North,0,0.0,0.0,60,0.00,,SKC,0.00,VWS V14.00,2013-12-19 02:37:00,
2013-12-18 18:38:00,27.2,14.8,29.68,North,0,0.0,0.0,59,0.00,,SKC,0.00,VWS V14.00,2013-12-19 02:38:00,
2013-12-18 18:39:00,27.2,15.5,29.68,NNE,22,0.0,0.0,61,0.00,,SKC,0.00,VWS V14.00,2013-12-19 02:39:00,
2013-12-18 18:40:00,27.2,15.9,29.68,North,0,2.0,2.0,62,0.00,,SKC,0.00,VWS V14.00,2013-12-19 02:40:00,
2013-12-18 18:41:00,27.2,15.9,29.68,North,0,2.2,2.2,62,0.00,,SKC,0.00,VWS V14.00,2013-12-19 02:41:00,
2013-12-18 18:42:00,27.0,15.4,29.68,NNW,338,0.0,0.0,61,0.00,,SKC,0.00,VWS V14.00,2013-12-19 02:42:00,
2013-12-18 18:44:00,27.2,14.8,29.71,NE,45,0.0,0.0,59,0.00,,SKC,0.00,VWS V14.00,2013-12-19 02:44:00,
2013-12-18 18:45:00,27.2,14.8,29.71,NE,45,0.0,0.0,59,0.00,,SKC,0.00,VWS V14.00,2013-12-19 02:45:00,
2013-12-18 18:46:00,27.2,14.8,29.71,NE,45,0.0,0.0,59,0.00,,SKC,0.00,VWS V14.00,2013-12-19 02:46:00,
2013-12-18 18:47:00,27.2,14.4,29.71,NE,45,0.0,0.0,58,0.00,,SKC,0.00,VWS V14.00,2013-12-19 02:47:00,
2013-12-18 18:49:00,27.2,14.8,29.71,NE,45,0.0,0.0,59,0.00,,SKC,0.00,VWS V14.00,2013-12-19 02:49:00,
2013-12-18 18:50:00,27.2,15.1,29.71,NNE,22,0.0,0.0,60,0.00,,SKC,0.00,VWS V14.00,2013-12-19 02:50:00,
2013-12-18 18:51:00,27.2,14.8,29.71,ENE,68,0.0,0.0,59,0.00,,SKC,0.00,VWS V14.00,2013-12-19 02:51:00,
2013-12-18 18:52:00,27.2,14.8,29.71,East,90,0.0,0.0,59,0.00,,SKC,0.00,VWS V14.00,2013-12-19 02:52:00,
2013-12-18 18:54:00,27.2,15.1,29.71,SE,135,0.0,0.0,60,0.00,,SKC,0.00,VWS V14.00,2013-12-19 02:54:00,
2013-12-18 18:56:00,27.2,15.5,29.71,SE,135,0.0,0.0,61,0.00,,SKC,0.00,VWS V14.00,2013-12-19 02:56:00,
2013-12-18 18:57:00,27.2,15.5,29.71,SE,135,0.0,0.0,61,0.00,,SKC,0.00,VWS V14.00,2013-12-19 02:57:00,
2013-12-18 18:59:00,27.2,15.1,29.68,SE,135,0.0,0.0,60,0.00,,SKC,0.00,VWS V14.00,2013-12-19 02:59:00,
2013-12-18 19:00:00,27.2,15.1,29.68,SE,135,0.0,0.0,60,0.00,,SKC,0.00,VWS V14.00,2013-12-19 03:00:00,
2013-12-18 19:01:00,27.2,15.1,29.68,SE,135,0.0,0.0,60,0.00,,SKC,0.00,VWS V14.00,2013-12-19 03:01:00,
2013-12-18 19:02:00,27.2,15.1,29.68,SE,135,0.0,0.0,60,0.00,,SKC,0.00,VWS V14.00,2013-12-19 03:02:00,
2013-12-18 19:04:00,27.2,14.8,29.68,SE,135,0.0,0.0,59,0.00,,SKC,0.00,VWS V14.00,2013-12-19 03:04:00,
2013-12-18 19:05:00,27.2,14.8,29.68,SE,135,0.0,0.0,59,0.00,,SKC,0.00,VWS V14.00,2013-12-19 03:05:00,
2013-12-18 19:06:00,27.2,14.8,29.68,SE,135,0.0,0.0,59,0.00,,SKC,0.00,VWS V14.00,2013-12-19 03:06:00,
2013-12-18 19:07:00,27.2,14.8,29.68,SE,135,0.0,0.0,59,0.00,,SKC,0.00,VWS V14.00,2013-12-19 03:07:00,
2013-12-18 19:10:00,27.2,15.1,29.68,SE,135,0.0,0.0,60,0.00,,SKC,0.00,VWS V14.00,2013-12-19 03:10:00,
2013-12-18 19:11:00,27.2,14.8,29.68,NE,45,0.0,0.0,59,0.00,,SKC,0.00,VWS V14.00,2013-12-19 03:11:00,
2013-12-18 19:13:00,27.2,14.8,29.68,NE,45,0.0,0.0,59,0.00,,SKC,0.00,VWS V14.00,2013-12-19 03:13:00,
2013-12-18 19:15:00,27.2,15.1,29.71,NE,45,0.0,0.0,60,0.00,,SKC,0.00,VWS V14.00,2013-12-19 03:15:00,
2013-12-18 19:16:00,27.2,15.1,29.71,ESE,112,0.0,0.0,60,0.00,,SKC,0.00,VWS V14.00,2013-12-19 03:16:00,
2013-12-18 19:18:00,27.2,15.1,29.71,ESE,112,0.0,0.0,60,0.00,,SKC,0.00,VWS V14.00,2013-12-19 03:18:00,
2013-12-18 19:20:00,27.2,15.1,29.71,ESE,112,0.0,0.0,60,0.00,,SKC,0.00,VWS V14.00,2013-12-19 03:20:00,
2013-12-18 19:21:00,27.2,15.1,29.71,ESE,112,0.0,0.0,60,0.00,,SKC,0.00,VWS V14.00,2013-12-19 03:21:00,
2013-12-18 19:23:00,27.2,15.1,29.71,SE,135,1.6,1.6,60,0.00,,SKC,0.00,VWS V14.00,2013-12-19 03:23:00,
2013-12-18 19:25:00,27.2,15.5,29.71,SE,135,0.0,0.0,61,0.00,,SKC,0.00,VWS V14.00,2013-12-19 03:25:00,
2013-12-18 19:26:00,27.2,15.5,29.71,SE,135,0.0,0.0,61,0.00,,SKC,0.00,VWS V14.00,2013-12-19 03:26:00,
2013-12-18 19:28:00,27.0,15.4,29.71,SE,135,0.0,0.0,61,0.00,,SKC,0.00,VWS V14.00,2013-12-19 03:28:00,
2013-12-18 19:29:00,27.0,15.4,29.71,SE,135,0.0,0.0,61,0.00,,SKC,0.00,VWS V14.00,2013-12-19 03:29:00,
2013-12-18 19:30:00,27.0,15.0,29.71,WSW,248,0.0,0.0,60,0.00,,SKC,0.00,VWS V14.00,2013-12-19 03:30:00,
2013-12-18 19:31:00,27.0,15.0,29.71,WSW,248,0.0,0.0,60,0.00,,SKC,0.00,VWS V14.00,2013-12-19 03:31:00,
2013-12-18 19:33:00,27.0,15.0,29.71,WSW,248,0.0,0.0,60,0.00,,SKC,0.00,VWS V14.00,2013-12-19 03:33:00,
2013-12-18 19:34:00,27.0,15.0,29.71,WSW,248,0.0,0.0,60,0.00,,SKC,0.00,VWS V14.00,2013-12-19 03:34:00,
2013-12-18 19:36:00,27.0,15.4,29.71,WSW,248,0.0,0.0,61,0.00,,SKC,0.00,VWS V14.00,2013-12-19 03:36:00,
2013-12-18 19:38:00,26.8,15.2,29.71,WSW,248,0.0,0.0,61,0.00,,SKC,0.00,VWS V14.00,2013-12-19 03:38:00,
2013-12-18 19:39:00,26.8,14.8,29.71,WSW,248,0.0,0.0,60,0.00,,SKC,0.00,VWS V14.00,2013-12-19 03:39:00,
2013-12-18 19:41:00,26.8,15.2,29.71,WSW,248,0.0,0.0,61,0.00,,SKC,0.00,VWS V14.00,2013-12-19 03:41:00,
2013-12-18 19:42:00,26.8,15.2,29.71,WSW,248,0.0,0.0,61,0.00,,SKC,0.00,VWS V14.00,2013-12-19 03:42:00,
2013-12-18 19:44:00,26.8,15.2,29.68,WSW,248,0.0,0.0,61,0.00,,SKC,0.00,VWS V14.00,2013-12-19 03:44:00,
2013-12-18 19:46:00,26.8,15.2,29.68,WSW,248,0.0,0.0,61,0.00,,SKC,0.00,VWS V14.00,2013-12-19 03:46:00,
2013-12-18 19:47:00,26.8,15.2,29.68,SE,135,0.0,0.0,61,0.00,,SKC,0.00,VWS V14.00,2013-12-19 03:47:00,
2013-12-18 19:49:00,26.8,16.3,29.68,South,180,0.0,0.0,64,0.00,,SKC,0.00,VWS V14.00,2013-12-19 03:49:00,
2013-12-18 19:51:00,26.8,16.3,29.68,ENE,68,0.0,0.0,64,0.00,,SKC,0.00,VWS V14.00,2013-12-19 03:51:00,
2013-12-18 19:52:00,26.8,16.3,29.68,ENE,68,0.0,0.0,64,0.00,,SKC,0.00,VWS V14.00,2013-12-19 03:52:00,
2013-12-18 19:54:00,26.6,16.1,29.68,ENE,68,0.0,0.0,64,0.00,,SKC,0.00,VWS V14.00,2013-12-19 03:54:00,
2013-12-18 19:55:00,26.6,16.1,29.68,ENE,68,0.0,0.0,64,0.00,,SKC,0.00,VWS V14.00,2013-12-19 03:55:00,
2013-12-18 19:56:00,26.6,16.1,29.68,ENE,68,0.0,0.0,64,0.00,,SKC,0.00,VWS V14.00,2013-12-19 03:56:00,
2013-12-18 19:58:00,26.6,15.8,29.68,NE,45,0.0,0.0,63,0.00,,SKC,0.00,VWS V14.00,2013-12-19 03:58:00,
2013-12-18 20:00:00,26.5,15.6,29.71,ENE,68,0.0,0.0,63,0.00,,SKC,0.00,VWS V14.00,2013-12-19 04:00:00,
2013-12-18 20:01:00,26.5,15.6,29.71,East,90,0.0,0.0,63,0.00,,SKC,0.00,VWS V14.00,2013-12-19 04:01:00,
2013-12-18 20:02:00,26.5,16.3,29.71,East,90,0.0,0.0,65,0.00,,SKC,0.00,VWS V14.00,2013-12-19 04:02:00,
2013-12-18 20:03:00,26.5,17.0,29.71,East,90,0.0,0.0,67,0.00,,SKC,0.00,VWS V14.00,2013-12-19 04:03:00,
2013-12-18 20:05:00,26.5,17.0,29.71,NE,45,2.5,2.5,67,0.00,,SKC,0.00,VWS V14.00,2013-12-19 04:05:00,
2013-12-18 20:06:00,26.5,16.6,29.71,North,0,0.0,0.0,66,0.00,,SKC,0.00,VWS V14.00,2013-12-19 04:06:00,
2013-12-18 20:07:00,26.5,16.6,29.71,North,0,0.0,0.0,66,0.00,,SKC,0.00,VWS V14.00,2013-12-19 04:07:00,
2013-12-18 20:08:00,26.3,16.8,29.71,ENE,68,2.0,2.0,67,0.00,,SKC,0.00,VWS V14.00,2013-12-19 04:08:00,
2013-12-18 20:10:00,26.5,17.0,29.71,East,90,0.0,0.0,67,0.00,,SKC,0.00,VWS V14.00,2013-12-19 04:10:00,
2013-12-18 20:12:00,26.3,16.8,29.71,East,90,0.0,0.0,67,0.00,,SKC,0.00,VWS V14.00,2013-12-19 04:12:00,
2013-12-18 20:13:00,26.3,16.5,29.65,East,90,0.0,0.0,66,0.00,,SKC,0.00,VWS V14.00,2013-12-19 04:13:00,
2013-12-18 20:15:00,26.3,16.5,29.65,East,90,0.0,0.0,66,0.00,,SKC,0.00,VWS V14.00,2013-12-19 04:15:00,
2013-12-18 20:17:00,26.3,16.5,29.65,East,90,0.0,0.0,66,0.00,,SKC,0.00,VWS V14.00,2013-12-19 04:17:00,
2013-12-18 20:19:00,26.3,16.1,29.65,ENE,68,0.0,0.0,65,0.00,,SKC,0.00,VWS V14.00,2013-12-19 04:19:00,
2013-12-18 20:20:00,26.3,16.1,29.65,ENE,68,0.0,0.0,65,0.00,,SKC,0.00,VWS V14.00,2013-12-19 04:20:00,
2013-12-18 20:22:00,26.1,16.3,29.65,ENE,68,0.0,0.0,66,0.00,,SKC,0.00,VWS V14.00,2013-12-19 04:22:00,
2013-12-18 20:25:00,26.1,16.0,29.65,SE,135,0.0,0.0,65,0.00,,SKC,0.00,VWS V14.00,2013-12-19 04:25:00,
2013-12-18 20:26:00,26.1,15.6,29.65,SE,135,0.0,0.0,64,0.00,,SKC,0.00,VWS V14.00,2013-12-19 04:26:00,
2013-12-18 20:27:00,26.1,15.6,29.65,SE,135,0.0,0.0,64,0.00,,SKC,0.00,VWS V14.00,2013-12-19 04:27:00,
2013-12-18 20:30:00,26.1,15.6,29.65,South,180,0.0,0.0,64,0.00,,SKC,0.00,VWS V14.00,2013-12-19 04:30:00,
2013-12-18 20:31:00,26.1,15.6,29.65,South,180,0.0,0.0,64,0.00,,SKC,0.00,VWS V14.00,2013-12-19 04:31:00,
2013-12-18 20:32:00,26.1,15.6,29.65,WSW,248,0.0,0.0,64,0.00,,SKC,0.00,VWS V14.00,2013-12-19 04:32:00,
2013-12-18 20:33:00,26.1,15.6,29.65,West,270,0.0,0.0,64,0.00,,SKC,0.00,VWS V14.00,2013-12-19 04:33:00,
2013-12-18 20:35:00,26.1,15.6,29.65,West,270,0.0,0.0,64,0.00,,SKC,0.00,VWS V14.00,2013-12-19 04:35:00,
2013-12-18 20:36:00,26.1,15.6,29.65,West,270,0.0,0.0,64,0.00,,SKC,0.00,VWS V14.00,2013-12-19 04:36:00,
2013-12-18 20:37:00,26.1,15.6,29.65,West,270,0.0,0.0,64,0.00,,SKC,0.00,VWS V14.00,2013-12-19 04:37:00,
2013-12-18 20:38:00,26.1,15.6,29.65,West,270,0.0,0.0,64,0.00,,SKC,0.00,VWS V14.00,2013-12-19 04:38:00,
2013-12-18 20:40:00,26.1,16.0,29.65,SW,225,2.5,2.5,65,0.00,,SKC,0.00,VWS V14.00,2013-12-19 04:40:00,
2013-12-18 20:41:00,26.1,16.3,29.65,SSW,202,2.7,2.7,66,0.00,,SKC,0.00,VWS V14.00,2013-12-19 04:41:00,
2013-12-18 20:42:00,26.1,16.3,29.65,SSW,202,2.5,2.5,66,0.00,,SKC,0.00,VWS V14.00,2013-12-19 04:42:00,
2013-12-18 20:43:00,26.1,16.7,29.65,SSW,202,0.0,0.0,67,0.00,,SKC,0.00,VWS V14.00,2013-12-19 04:43:00,
2013-12-18 20:44:00,26.1,16.7,29.65,SE,135,2.0,2.0,67,0.00,,SKC,0.00,VWS V14.00,2013-12-19 04:44:00,
2013-12-18 20:45:00,26.3,16.8,29.65,SSE,158,0.0,0.0,67,0.00,,SKC,0.00,VWS V14.00,2013-12-19 04:45:00,
2013-12-18 20:46:00,26.3,16.8,29.65,SSE,158,0.0,0.0,67,0.00,,SKC,0.00,VWS V14.00,2013-12-19 04:46:00,
2013-12-18 20:47:00,26.3,16.8,29.65,SSE,158,0.0,0.0,67,0.00,,SKC,0.00,VWS V14.00,2013-12-19 04:47:00,
2013-12-18 20:48:00,26.1,16.7,29.65,SSE,158,0.0,0.0,67,0.00,,SKC,0.00,VWS V14.00,2013-12-19 04:48:00,
2013-12-18 20:49:00,26.1,16.7,29.65,SSE,158,0.0,0.0,67,0.00,,SKC,0.00,VWS V14.00,2013-12-19 04:49:00,
2013-12-18 20:50:00,26.1,16.7,29.65,SSE,158,0.0,0.0,67,0.00,,SKC,0.00,VWS V14.00,2013-12-19 04:50:00,
2013-12-18 20:51:00,26.1,16.7,29.65,SSE,158,0.0,0.0,67,0.00,,SKC,0.00,VWS V14.00,2013-12-19 04:51:00,
2013-12-18 20:52:00,26.1,16.7,29.65,SSE,158,0.0,0.0,67,0.00,,SKC,0.00,VWS V14.00,2013-12-19 04:52:00,
2013-12-18 20:53:00,26.1,16.7,29.65,SSE,158,0.0,0.0,67,0.00,,SKC,0.00,VWS V14.00,2013-12-19 04:53:00,
2013-12-18 20:54:00,26.1,16.7,29.65,SSE,158,0.0,0.0,67,0.00,,SKC,0.00,VWS V14.00,2013-12-19 04:54:00,
2013-12-18 20:55:00,26.1,17.0,29.65,North,0,0.0,0.0,68,0.00,,SKC,0.00,VWS V14.00,2013-12-19 04:55:00,
2013-12-18 20:56:00,26.1,17.3,29.65,NNE,22,0.0,0.0,69,0.00,,SKC,0.00,VWS V14.00,2013-12-19 04:56:00,
2013-12-18 20:57:00,25.9,17.2,29.65,East,90,0.0,0.0,69,0.00,,SKC,0.00,VWS V14.00,2013-12-19 04:57:00,
2013-12-18 20:58:00,25.9,16.8,29.65,ENE,68,1.6,1.6,68,0.00,,SKC,0.00,VWS V14.00,2013-12-19 04:58:00,
2013-12-18 21:00:00,25.9,16.5,29.65,NNE,22,0.0,0.0,67,0.00,,SKC,0.00,VWS V14.00,2013-12-19 05:00:00,
2013-12-18 21:01:00,25.9,16.5,29.65,NNE,22,0.0,0.0,67,0.00,,SKC,0.00,VWS V14.00,2013-12-19 05:01:00,
2013-12-18 21:06:00,25.9,16.8,29.65,SE,135,0.9,0.9,68,0.00,,SKC,0.00,VWS V14.00,2013-12-19 05:06:00,
2013-12-18 21:07:00,25.9,16.8,29.65,SW,225,0.0,0.0,68,0.00,,SKC,0.00,VWS V14.00,2013-12-19 05:07:00,
2013-12-18 21:11:00,25.9,16.5,29.65,SW,225,0.0,0.0,67,0.00,,SKC,0.00,VWS V14.00,2013-12-19 05:11:00,
2013-12-18 21:12:00,25.9,16.5,29.65,SW,225,0.0,0.0,67,0.00,,SKC,0.00,VWS V14.00,2013-12-19 05:12:00,
2013-12-18 21:16:00,25.7,16.3,29.65,SW,225,0.0,0.0,67,0.00,,SKC,0.00,VWS V14.00,2013-12-19 05:16:00,
2013-12-18 21:17:00,25.7,16.3,29.65,SW,225,0.0,0.0,67,0.00,,SKC,0.00,VWS V14.00,2013-12-19 05:17:00,
2013-12-18 21:21:00,25.6,16.1,29.65,SW,225,0.0,0.0,67,0.00,,SKC,0.00,VWS V14.00,2013-12-19 05:21:00,
2013-12-18 21:22:00,25.6,16.1,29.65,SW,225,0.0,0.0,67,0.00,,SKC,0.00,VWS V14.00,2013-12-19 05:22:00,
2013-12-18 21:23:00,25.6,16.1,29.65,SW,225,0.0,0.0,67,0.00,,SKC,0.00,VWS V14.00,2013-12-19 05:23:00,
2013-12-18 21:26:00,25.4,15.6,29.65,SW,225,0.0,0.0,66,0.00,,SKC,0.00,VWS V14.00,2013-12-19 05:26:00,
2013-12-18 21:27:00,25.4,15.6,29.65,SW,225,0.0,0.0,66,0.00,,SKC,0.00,VWS V14.00,2013-12-19 05:27:00,
2013-12-18 21:28:00,25.4,15.6,29.65,SW,225,0.0,0.0,66,0.00,,SKC,0.00,VWS V14.00,2013-12-19 05:28:00,
2013-12-18 21:31:00,25.4,16.3,29.65,WSW,248,0.0,0.0,68,0.00,,SKC,0.00,VWS V14.00,2013-12-19 05:31:00,
2013-12-18 21:32:00,25.4,16.3,29.65,WSW,248,0.0,0.0,68,0.00,,SKC,0.00,VWS V14.00,2013-12-19 05:32:00,
2013-12-18 21:33:00,25.4,16.3,29.65,WSW,248,0.0,0.0,68,0.00,,SKC,0.00,VWS V14.00,2013-12-19 05:33:00,
2013-12-18 21:37:00,25.4,16.6,29.65,WSW,248,0.0,0.0,69,0.00,,SKC,0.00,VWS V14.00,2013-12-19 05:37:00,
2013-12-18 21:38:00,25.4,16.6,29.65,WSW,248,0.0,0.0,69,0.00,,SKC,0.00,VWS V14.00,2013-12-19 05:38:00,
2013-12-18 21:39:00,25.4,16.6,29.65,WSW,248,0.0,0.0,69,0.00,,SKC,0.00,VWS V14.00,2013-12-19 05:39:00,
2013-12-18 21:42:00,25.2,16.5,29.65,WSW,248,0.0,0.0,69,0.00,,SKC,0.00,VWS V14.00,2013-12-19 05:42:00,
2013-12-18 21:43:00,25.2,16.5,29.65,WSW,248,0.0,0.0,69,0.00,,SKC,0.00,VWS V14.00,2013-12-19 05:43:00,
2013-12-18 21:44:00,25.2,16.5,29.65,WSW,248,0.0,0.0,69,0.00,,SKC,0.00,VWS V14.00,2013-12-19 05:44:00,
2013-12-18 21:47:00,25.2,16.5,29.65,WSW,248,0.0,0.0,69,0.00,,SKC,0.00,VWS V14.00,2013-12-19 05:47:00,
2013-12-18 21:48:00,25.2,16.1,29.65,WSW,248,0.0,0.0,68,0.00,,SKC,0.00,VWS V14.00,2013-12-19 05:48:00,
2013-12-18 21:49:00,25.2,16.1,29.65,WSW,248,0.0,0.0,68,0.00,,SKC,0.00,VWS V14.00,2013-12-19 05:49:00,
2013-12-18 21:52:00,25.2,16.1,29.65,NE,45,0.0,0.0,68,0.00,,SKC,0.00,VWS V14.00,2013-12-19 05:52:00,
2013-12-18 21:53:00,25.2,16.1,29.65,NE,45,1.3,1.3,68,0.00,,SKC,0.00,VWS V14.00,2013-12-19 05:53:00,
2013-12-18 21:54:00,25.2,16.1,29.65,NE,45,0.0,0.0,68,0.00,,SKC,0.00,VWS V14.00,2013-12-19 05:54:00,
2013-12-18 21:57:00,25.2,16.5,29.65,NE,45,0.0,0.0,69,0.00,,SKC,0.00,VWS V14.00,2013-12-19 05:57:00,
2013-12-18 21:58:00,25.0,16.0,29.65,NE,45,0.0,0.0,68,0.00,,SKC,0.00,VWS V14.00,2013-12-19 05:58:00,
2013-12-18 21:59:00,25.0,16.0,29.62,East,90,0.0,0.0,68,0.00,,SKC,0.00,VWS V14.00,2013-12-19 05:59:00,
2013-12-18 22:02:00,25.0,16.0,29.62,East,90,0.0,0.0,68,0.00,,SKC,0.00,VWS V14.00,2013-12-19 06:02:00,
2013-12-18 22:03:00,25.0,16.0,29.62,SSW,202,0.0,0.0,68,0.00,,SKC,0.00,VWS V14.00,2013-12-19 06:03:00,
2013-12-18 22:04:00,24.8,15.8,29.62,SSW,202,1.6,1.6,68,0.00,,SKC,0.00,VWS V14.00,2013-12-19 06:04:00,
2013-12-18 22:07:00,24.7,15.6,29.62,SSW,202,0.0,0.0,68,0.00,,SKC,0.00,VWS V14.00,2013-12-19 06:07:00,
2013-12-18 22:08:00,24.7,15.6,29.62,SSW,202,0.9,0.9,68,0.00,,SKC,0.00,VWS V14.00,2013-12-19 06:08:00,
2013-12-18 22:09:00,24.7,15.6,29.62,SSW,202,2.0,2.0,68,0.00,,SKC,0.00,VWS V14.00,2013-12-19 06:09:00,
2013-12-18 22:12:00,24.5,15.4,29.62,South,180,0.0,0.0,68,0.00,,SKC,0.00,VWS V14.00,2013-12-19 06:12:00,
2013-12-18 22:13:00,24.5,15.4,29.62,South,180,0.0,0.0,68,0.00,,SKC,0.00,VWS V14.00,2013-12-19 06:13:00,
2013-12-18 22:14:00,24.5,15.4,29.65,South,180,0.0,0.0,68,0.00,,SKC,0.00,VWS V14.00,2013-12-19 06:14:00,
2013-12-18 22:15:00,24.5,15.4,29.65,South,180,0.0,0.0,68,0.00,,SKC,0.00,VWS V14.00,2013-12-19 06:15:00,
2013-12-18 22:17:00,24.5,15.8,29.65,SSW,202,0.0,0.0,69,0.00,,SKC,0.00,VWS V14.00,2013-12-19 06:17:00,
2013-12-18 22:18:00,24.3,15.6,29.65,SW,225,0.0,0.0,69,0.00,,SKC,0.00,VWS V14.00,2013-12-19 06:18:00,
2013-12-18 22:19:00,24.3,15.6,29.65,SW,225,0.0,0.0,69,0.00,,SKC,0.00,VWS V14.00,2013-12-19 06:19:00,
2013-12-18 22:20:00,24.3,15.3,29.65,SW,225,0.0,0.0,68,0.00,,SKC,0.00,VWS V14.00,2013-12-19 06:20:00,
2013-12-18 22:23:00,24.3,15.6,29.65,SW,225,0.0,0.0,69,0.00,,SKC,0.00,VWS V14.00,2013-12-19 06:23:00,
2013-12-18 22:24:00,24.3,15.6,29.65,WSW,248,0.0,0.0,69,0.00,,SKC,0.00,VWS V14.00,2013-12-19 06:24:00,
2013-12-18 22:25:00,24.1,15.4,29.65,WSW,248,0.0,0.0,69,0.00,,SKC,0.00,VWS V14.00,2013-12-19 06:25:00,
2013-12-18 22:28:00,24.1,15.4,29.65,WSW,248,0.0,0.0,69,0.00,,SKC,0.00,VWS V14.00,2013-12-19 06:28:00,
2013-12-18 22:29:00,24.1,15.4,29.65,WSW,248,0.0,0.0,69,0.00,,SKC,0.00,VWS V14.00,2013-12-19 06:29:00,
2013-12-18 22:30:00,24.1,15.4,29.65,WSW,248,0.0,0.0,69,0.00,,SKC,0.00,VWS V14.00,2013-12-19 06:30:00,
2013-12-18 22:33:00,24.1,15.8,29.65,WNW,292,0.0,0.0,70,0.00,,SKC,0.00,VWS V14.00,2013-12-19 06:33:00,
2013-12-18 22:34:00,24.1,15.8,29.65,West,270,0.0,0.0,70,0.00,,SKC,0.00,VWS V14.00,2013-12-19 06:34:00,
2013-12-18 22:35:00,23.9,15.6,29.65,West,270,0.0,0.0,70,0.00,,SKC,0.00,VWS V14.00,2013-12-19 06:35:00,
2013-12-18 22:38:00,23.9,15.6,29.65,West,270,0.0,0.0,70,0.00,,SKC,0.00,VWS V14.00,2013-12-19 06:38:00,
2013-12-18 22:39:00,23.9,15.6,29.65,West,270,0.0,0.0,70,0.00,,SKC,0.00,VWS V14.00,2013-12-19 06:39:00,
2013-12-18 22:41:00,23.9,15.6,29.65,WNW,292,0.0,0.0,70,0.00,,SKC,0.00,VWS V14.00,2013-12-19 06:41:00,
2013-12-18 22:43:00,23.9,15.6,29.65,WNW,292,0.0,0.0,70,0.00,,SKC,0.00,VWS V14.00,2013-12-19 06:43:00,
2013-12-18 22:44:00,23.9,15.6,29.62,WNW,292,0.0,0.0,70,0.00,,SKC,0.00,VWS V14.00,2013-12-19 06:44:00,
2013-12-18 22:45:00,23.9,15.6,29.62,West,270,0.0,0.0,70,0.00,,SKC,0.00,VWS V14.00,2013-12-19 06:45:00,
2013-12-18 22:46:00,23.9,15.6,29.62,West,270,0.0,0.0,70,0.00,,SKC,0.00,VWS V14.00,2013-12-19 06:46:00,
2013-12-18 22:48:00,23.9,15.6,29.62,WNW,292,0.0,0.0,70,0.00,,SKC,0.00,VWS V14.00,2013-12-19 06:48:00,
2013-12-18 22:49:00,23.9,15.6,29.62,West,270,0.0,0.0,70,0.00,,SKC,0.00,VWS V14.00,2013-12-19 06:49:00,
2013-12-18 22:50:00,24.1,15.8,29.62,West,270,0.0,0.0,70,0.00,,SKC,0.00,VWS V14.00,2013-12-19 06:50:00,
2013-12-18 22:51:00,24.1,16.1,29.62,WNW,292,3.1,3.1,71,0.00,,SKC,0.00,VWS V14.00,2013-12-19 06:51:00,
2013-12-18 22:53:00,24.1,16.1,29.62,WNW,292,0.0,0.0,71,0.00,,SKC,0.00,VWS V14.00,2013-12-19 06:53:00,
2013-12-18 22:54:00,24.1,16.1,29.62,WNW,292,0.0,0.0,71,0.00,,SKC,0.00,VWS V14.00,2013-12-19 06:54:00,
2013-12-18 22:55:00,24.1,16.1,29.62,NW,315,0.0,0.0,71,0.00,,SKC,0.00,VWS V14.00,2013-12-19 06:55:00,
2013-12-18 22:56:00,24.3,16.6,29.62,North,0,0.0,0.0,72,0.00,,SKC,0.00,VWS V14.00,2013-12-19 06:56:00,
2013-12-18 22:58:00,24.3,16.6,29.62,WNW,292,0.0,0.0,72,0.00,,SKC,0.00,VWS V14.00,2013-12-19 06:58:00,
2013-12-18 22:59:00,24.3,16.6,29.62,WSW,248,0.0,0.0,72,0.00,,SKC,0.00,VWS V14.00,2013-12-19 06:59:00,
2013-12-18 23:00:00,24.5,16.8,29.62,WSW,248,1.1,1.1,72,0.00,,SKC,0.00,VWS V14.00,2013-12-19 07:00:00,
2013-12-18 23:01:00,24.5,16.8,29.62,WSW,248,1.1,1.1,72,0.00,,SKC,0.00,VWS V14.00,2013-12-19 07:01:00,
2013-12-18 23:03:00,24.7,16.9,29.62,WSW,248,0.0,0.0,72,0.00,,SKC,0.00,VWS V14.00,2013-12-19 07:03:00,
2013-12-18 23:04:00,24.7,16.9,29.62,WSW,248,0.0,0.0,72,0.00,,SKC,0.00,VWS V14.00,2013-12-19 07:04:00,
2013-12-18 23:05:00,24.7,16.9,29.62,SW,225,2.2,2.2,72,0.00,,SKC,0.00,VWS V14.00,2013-12-19 07:05:00,
2013-12-18 23:06:00,24.7,16.9,29.62,SW,225,0.0,0.0,72,0.00,,SKC,0.00,VWS V14.00,2013-12-19 07:06:00,
2013-12-18 23:08:00,24.7,16.9,29.62,SW,225,0.0,0.0,72,0.00,,SKC,0.00,VWS V14.00,2013-12-19 07:08:00,
2013-12-18 23:09:00,24.8,17.1,29.62,SW,225,0.0,0.0,72,0.00,,SKC,0.00,VWS V14.00,2013-12-19 07:09:00,
2013-12-18 23:10:00,24.8,17.1,29.62,SW,225,0.0,0.0,72,0.00,,SKC,0.00,VWS V14.00,2013-12-19 07:10:00,
2013-12-18 23:11:00,24.8,17.1,29.62,East,90,0.0,0.0,72,0.00,,SKC,0.00,VWS V14.00,2013-12-19 07:11:00,
2013-12-18 23:12:00,24.8,17.1,29.62,East,90,0.0,0.0,72,0.00,,SKC,0.00,VWS V14.00,2013-12-19 07:12:00,
2013-12-18 23:13:00,24.7,16.9,29.62,ESE,112,0.0,0.0,72,0.00,,SKC,0.00,VWS V14.00,2013-12-19 07:13:00,
2013-12-18 23:14:00,24.7,16.9,29.62,SE,135,0.0,0.0,72,0.00,,SKC,0.00,VWS V14.00,2013-12-19 07:14:00,
2013-12-18 23:15:00,24.7,16.9,29.62,SE,135,0.0,0.0,72,0.00,,SKC,0.00,VWS V14.00,2013-12-19 07:15:00,
2013-12-18 23:17:00,24.7,16.9,29.62,SE,135,0.0,0.0,72,0.00,,SKC,0.00,VWS V14.00,2013-12-19 07:17:00,
2013-12-18 23:18:00,24.7,16.9,29.62,SE,135,0.0,0.0,72,0.00,,SKC,0.00,VWS V14.00,2013-12-19 07:18:00,
2013-12-18 23:20:00,24.7,16.9,29.62,SE,135,0.0,0.0,72,0.00,,SKC,0.00,VWS V14.00,2013-12-19 07:20:00,
2013-12-18 23:22:00,24.7,16.9,29.62,SSE,158,0.0,0.0,72,0.00,,SKC,0.00,VWS V14.00,2013-12-19 07:22:00,
2013-12-18 23:23:00,24.7,16.9,29.62,SSE,158,0.0,0.0,72,0.00,,SKC,0.00,VWS V14.00,2013-12-19 07:23:00,
2013-12-18 23:25:00,24.7,16.9,29.62,SE,135,0.0,0.0,72,0.00,,SKC,0.00,VWS V14.00,2013-12-19 07:25:00,
2013-12-18 23:26:00,24.7,16.9,29.62,ESE,112,0.0,0.0,72,0.00,,SKC,0.00,VWS V14.00,2013-12-19 07:26:00,
2013-12-18 23:27:00,24.7,16.9,29.62,ESE,112,0.0,0.0,72,0.00,,SKC,0.00,VWS V14.00,2013-12-19 07:27:00,
2013-12-18 23:28:00,24.7,16.9,29.62,East,90,0.0,0.0,72,0.00,,SKC,0.00,VWS V14.00,2013-12-19 07:28:00,
2013-12-18 23:30:00,24.7,16.9,29.62,SE,135,0.0,0.0,72,0.00,,SKC,0.00,VWS V14.00,2013-12-19 07:30:00,
2013-12-18 23:31:00,24.8,17.1,29.62,SE,135,0.0,0.0,72,0.00,,SKC,0.00,VWS V14.00,2013-12-19 07:31:00,
2013-12-18 23:32:00,24.8,17.1,29.62,South,180,0.0,0.0,72,0.00,,SKC,0.00,VWS V14.00,2013-12-19 07:32:00,
2013-12-18 23:33:00,24.8,17.1,29.62,South,180,0.0,0.0,72,0.00,,SKC,0.00,VWS V14.00,2013-12-19 07:33:00,
2013-12-18 23:34:00,24.8,17.1,29.62,South,180,0.0,0.0,72,0.00,,SKC,0.00,VWS V14.00,2013-12-19 07:34:00,
2013-12-18 23:35:00,24.8,17.1,29.62,SSE,158,0.0,0.0,72,0.00,,SKC,0.00,VWS V14.00,2013-12-19 07:35:00,
2013-12-18 23:36:00,24.8,17.1,29.62,South,180,0.0,0.0,72,0.00,,SKC,0.00,VWS V14.00,2013-12-19 07:36:00,
2013-12-18 23:37:00,25.0,17.3,29.62,South,180,0.0,0.0,72,0.00,,SKC,0.00,VWS V14.00,2013-12-19 07:37:00,
2013-12-18 23:39:00,25.0,17.3,29.62,SE,135,0.0,0.0,72,0.00,,SKC,0.00,VWS V14.00,2013-12-19 07:39:00,
2013-12-18 23:40:00,25.0,17.3,29.62,SE,135,0.0,0.0,72,0.00,,SKC,0.00,VWS V14.00,2013-12-19 07:40:00,
2013-12-18 23:41:00,25.0,17.3,29.62,SE,135,0.0,0.0,72,0.00,,SKC,0.00,VWS V14.00,2013-12-19 07:41:00,
2013-12-18 23:43:00,25.0,17.3,29.62,SE,135,0.0,0.0,72,0.00,,SKC,0.00,VWS V14.00,2013-12-19 07:43:00,
2013-12-18 23:44:00,25.0,17.3,29.59,SE,135,0.0,0.0,72,0.00,,SKC,0.00,VWS V14.00,2013-12-19 07:44:00,
2013-12-18 23:45:00,25.0,17.0,29.59,SE,135,0.0,0.0,71,0.00,,SKC,0.00,VWS V14.00,2013-12-19 07:45:00,
2013-12-18 23:46:00,25.0,17.0,29.59,SE,135,0.0,0.0,71,0.00,,SKC,0.00,VWS V14.00,2013-12-19 07:46:00,
2013-12-18 23:48:00,25.0,17.0,29.59,West,270,0.0,0.0,71,0.00,,SKC,0.00,VWS V14.00,2013-12-19 07:48:00,
2013-12-18 23:49:00,25.0,17.0,29.59,West,270,0.0,0.0,71,0.00,,SKC,0.00,VWS V14.00,2013-12-19 07:49:00,
2013-12-18 23:50:00,25.0,17.0,29.59,NE,45,0.0,0.0,71,0.00,,SKC,0.00,VWS V14.00,2013-12-19 07:50:00,
2013-12-18 23:51:00,25.2,17.1,29.59,NNW,338,0.0,0.0,71,0.00,,SKC,0.00,VWS V14.00,2013-12-19 07:51:00,
2013-12-18 23:53:00,25.2,17.1,29.59,NNW,338,0.0,0.0,71,0.00,,SKC,0.00,VWS V14.00,2013-12-19 07:53:00,
2013-12-18 23:54:00,25.2,17.1,29.59,WNW,292,0.0,0.0,71,0.00,,SKC,0.00,VWS V14.00,2013-12-19 07:54:00,
2013-12-18 23:55:00,25.4,17.3,29.59,WNW,292,3.8,3.8,71,0.00,,SKC,0.00,VWS V14.00,2013-12-19 07:55:00,
2013-12-18 23:56:00,25.4,17.3,29.59,West,270,5.4,5.4,71,0.00,,SKC,0.00,VWS V14.00,2013-12-19 07:56:00,
2013-12-18 23:57:00,25.4,17.3,29.59,WNW,292,0.0,0.0,71,0.00,,SKC,0.00,VWS V14.00,2013-12-19 07:57:00,
2013-12-18 23:59:00,25.4,17.3,29.59,WNW,292,0.0,0.0,71,0.00,,SKC,0.00,VWS V14.00,2013-12-19 07:59:00,